GFSNW_prec_radar_000.txt.gz
Reflectivity
-20 -20 -20 -20 -20 -20 -20 -20 -20 -20 -20 -20 -20 -20 -20 -20 -20 -20 -20 -20 -20 -20 -20 -20 -20 -20 -20 -20 -20 -20 -20 -20 -20 -20 -20 -20 -20 -20 -20 -20 -20 -20 -20 -20
-20 -20 -20 -20 -20 -20 -20 -20 -20 -20 -20 -20 -20 -20 -20 -20 -20 -20 -20 -20 -20 -20 -20 -20 -20 -20 -20 -20 -20 -20 -20 -20 -20 -20 -20 -20 -20 -20 -20 -20 -20 -20 -7 -20
-20 -20 5 1 -20 -20 -20 -20 -20 -20 -20 -20 -20 -20 -20 -20 -20 -20 -20 -20 -20 -20 -20 -20 -20 -20 -20 -20 -20 -20 -20 -20 -20 -20 -20 -20 -20 -20 -20 -20 -10 -20 -20 -20
-20 3 9 -20 -20 -20 -20 -20 -20 -20 -20 -20 -20 -20 -20 -20 -20 -20 -20 -20 -20 -20 -20 -20 -20 -20 -20 -20 -20 -20 -20 -20 -20 -20 -20 -20 -20 -20 -20 -20 -20 -19 -20 -20
-18 10 9 -20 -20 -20 -20 -20 -20 -20 -20 -20 -20 -20 -20 -20 -20 -20 -20 -20 -20 -20 -20 -20 -20 -20 -20 -20 -20 -20 -20 -20 -20 -20 -20 -20 -20 -20 -20 -20 -20 -20 -20 -20
-9 5 9 -0 -20 -20 -20 -20 -20 -20 -20 -20 -20 -20 -20 -20 -20 -20 -20 -20 -20 -20 -20 -20 -20 -20 -20 -20 -20 -20 -20 -20 -20 -20 -20 -20 -20 -20 -20 -20 -20 -20 -20 -20
-19 10 9 -20 -20 -20 -20 -20 -20 -20 -20 -20 -20 -20 -20 -20 -20 -20 -20 -20 -20 -20 -20 -20 -20 -20 -20 -20 -20 -20 -20 -20 -20 -20 -20 -16 -20 -20 -20 -20 -20 -20 -20 -20
-20 9 -6 -20 -20 -20 -20 -20 -20 -20 -20 -20 -20 -20 -20 -20 -20 -20 -20 -20 -20 -20 -20 -20 -20 -20 -20 -20 -20 -20 -20 -20 -20 -20 -20 -20 -20 -20 -20 -20 -20 -20 -20 -20
-20 -20 -20 -20 -20 -20 -20 -20 -20 -20 -20 -20 -20 -20 -20 -20 -20 -20 -20 -20 -20 -20 -20 -20 -20 -20 -20 -20 -20 -20 -20 -20 -20 -13 -20 -18 -20 -20 -20 -20 -20 -20 -20 -14
-20 -20 -20 -20 -20 -20 -20 -20 -20 -20 -20 -20 -20 -20 -20 -20 -20 -20 -20 -20 -20 -20 -20 -20 -20 -20 -20 -20 -20 -20 -20 -20 -20 -20 -20 -20 -20 -20 -20 -19 1 -17 1 -20
-20 -20 -20 -20 -20 -20 -20 -20 -20 -20 -20 -20 -20 -20 -20 -20 -20 -20 -20 -20 -20 -20 -20 -20 -20 -20 -20 -20 -20 -20 -20 -20 -20 -19 -20 -20 -20 -18 9 -17 -7 -20 -16 -19
-20 -20 -20 -20 -20 -20 -20 -20 -20 -20 -20 -20 -20 -20 -20 -20 -20 -20 -20 -20 -20 -20 -20 -20 -20 -20 -20 -20 -20 -20 -20 -20 -20 3 -19 -20 -20 14 -12 -20 -19 -20 -13 25
-20 -20 -20 -20 -20 -20 -20 -20 -20 -20 -20 -20 -20 -20 -20 -20 -20 -20 -20 -20 -20 -20 -20 -20 -20 -20 -20 -11 -20 -18 -20 -20 -20 -16 -20 -20 -11 -12 -20 -20 -20 1 21 28
-20 -20 -20 -20 -20 -20 -20 -20 -20 -20 -18 -20 -20 -20 -20 -20 -20 -20 -20 -20 -20 -20 -20 -20 -16 -20 -20 -0 -14 10 -8 -20 -20 -20 -20 -20 -9 -13 -20 -3 -20 -18 -18 -7
8 6 7 -20 -20 -20 -20 -20 -20 -20 -20 -20 -20 -20 -20 -20 -20 -20 -20 -20 -20 -5 -12 -3 -6 -20 -18 22 26 23 -20 -12 -10 -18 9 33 22 -16 -9 -13 -20 -20 -20 -18
-11 -0 6 -10 -20 -20 -20 -20 -20 -20 -20 -20 -20 -20 -20 -20 -20 -20 -20 -20 -20 -20 -20 9 -19 1 9 25 27 6 -20 -20 -19 14 18 -11 -19 -20 -20 -10 -20 -20 -20 -20
3 13 -18 -20 -19 -20 -20 -20 -20 -20 -20 -3 -11 -20 -20 -20 -20 -20 -20 -20 -20 -20 -20 -10 5 -8 22 21 3 5 -18 -20 -18 -20 -20 -20 -20 -20 -20 -20 -19 -20 -20 -20
-20 -20 -16 -3 23 20 16 -16 -20 -20 -20 -20 -20 -20 -20 -20 -20 -20 -19 -20 -20 -20 -20 -10 -20 -20 -1 28 -17 -20 -20 -20 -20 -20 -20 -20 -20 -20 -20 -20 -20 -20 -20 -20
14 20 22 16 11 13 11 26 15 -13 11 -20 -2 18 7 -4 -20 -20 -20 -20 -20 -20 -20 -1 5 -19 -14 -20 -20 -20 -20 -20 -20 -20 -20 -20 -20 -20 -20 -20 -20 -20 -20 -20
30 28 31 34 29 24 13 32 31 40 28 18 23 21 22 14 12 4 20 22 -20 -20 -19 -20 -19 -20 -20 -20 -20 -20 -20 -20 -20 -20 -20 -20 -20 -20 -20 -20 -20 -20 -20 -20
32 35 36 28 23 28 31 35 40 37 25 21 18 -12 -10 7 26 35 32 7 -20 -20 -20 -20 -20 -20 -20 -20 -20 -20 -20 -20 -20 -20 -20 -20 -20 -20 -20 -20 -20 -20 -20 -20
27 23 14 19 33 31 30 28 23 7 -20 -20 -19 -7 12 20 8 4 26 -4 5 0 -19 -20 -20 -20 -20 -20 -20 -20 -20 -20 -20 -20 -20 -20 -20 -20 -20 -20 -20 -20 -20 -20
1 1 7 6 7 2 -7 -20 -19 -20 -20 -2 7 7 1 4 -0 2 -10 -20 -20 -20 -20 -20 -20 -20 -20 -20 -20 -20 -20 -20 -20 -20 -20 -20 -20 -20 -20 -20 -20 -20 -20 -20
-17 -11 -19 -19 -19 -20 -20 -20 -20 -6 6 2 -8 -20 -20 -18 -12 -19 -20 -20 -20 -20 -20 -20 -20 -20 -20 -20 -20 -20 -20 -20 -20 -20 -20 -20 -20 -20 -20 -20 -20 -20 -20 -20
-20 -20 -20 -20 -20 -20 -20 -20 -17 -20 -15 -10 -19 -19 -20 -20 -9 -20 -20 -20 -20 -20 -20 -20 -20 -20 -20 -20 -20 -20 -20 -20 -20 -20 -20 -20 -20 -20 -20 -20 -20 -20 -20 -20
-20 -20 -20 -20 -20 -20 -20 -20 -13 -7 16 -13 -11 -20 -20 -20 -20 -20 -20 -20 -20 -20 -20 -20 -20 -20 -20 -20 -20 -20 -20 -20 -20 -20 -20 -20 -20 -20 -20 -20 -20 -20 -20 -20
-20 -20 -20 -20 -20 -20 -20 -20 -16 -2 -8 -20 -20 -20 -20 -20 -20 -20 -20 -20 -20 -20 -20 -20 -20 -20 -20 -20 -20 -20 -20 -20 -20 -20 -20 -20 -20 -20 -20 -20 -20 -20 -20 -20

GFSNW_prec_radar_003.txt.gz
Reflectivity
-20 -20 -20 -20 -20 -20 -20 -20 -20 -20 -20 -20 -20 -20 -20 -20 -20 -20 -20 -20 -20 -20 -20 -20 -20 -20 -20 -20 -20 -20 -20 -20 -20 -20 -20 -20 -20 -20 -20 -20 -20 -20 -20 -15
-20 -20 -2 -20 -20 -20 -20 -20 -20 -20 -20 -20 -20 -20 -20 -20 -20 -20 -20 -20 -20 -20 -20 -20 -20 -20 -20 -20 -20 -20 -20 -20 -20 -20 -20 -20 -20 -20 -20 -20 -20 -20 1 -20
-20 -2 2 -20 -20 -20 -20 -20 -20 -20 -20 -20 -20 -20 -20 -20 -20 -20 -20 -20 -20 -20 -20 -20 -20 -20 -20 -20 -20 -20 -20 -20 -20 -20 -20 -20 -20 -20 -20 -20 -3 -20 -20 -20
-15 9 9 -17 -20 -20 -20 -20 -20 -20 -20 -20 -20 -20 -20 -20 -20 -20 -20 -20 -20 -20 -20 -20 -20 -20 -20 -20 -20 -20 -20 -20 -20 -20 -20 -20 -20 -20 -20 -20 -20 -19 -20 -20
5 5 -6 -20 -20 -20 -20 -20 -20 -20 -20 -20 -20 -20 -20 -20 -20 -20 -20 -20 -20 -20 -20 -20 -20 -20 -20 -20 -20 -20 -20 -20 -20 -20 -20 -20 -20 -20 -20 -20 -20 -20 -20 -20
3 8 -1 -20 -20 -20 -20 -20 -20 -20 -20 -20 -20 -20 -20 -20 -20 -20 -20 -20 -20 -20 -20 -20 -20 -20 -20 -20 -20 -20 -20 -20 -20 -20 -20 -20 -20 -20 -20 -20 -20 -20 -20 -20
-17 10 4 -20 -20 -20 -20 -20 -20 -20 -20 -20 -20 -20 -20 -20 -20 -20 -20 -20 -20 -20 -20 -20 -20 -20 -20 -20 -20 -20 -20 -20 -20 -20 -20 -20 -20 -20 -20 -20 -20 -20 -20 -20
-20 -19 -20 -20 -20 -20 -20 -20 -20 -20 -20 -20 -20 -20 -20 -20 -20 -20 -20 -20 -20 -20 -20 -20 -20 -20 -20 -20 -20 -20 -20 -20 -20 -17 -20 -20 -20 -20 -20 -20 -20 -20 -20 -20
-20 -20 -20 -20 -20 -20 -20 -20 -20 -20 -20 -20 -20 -20 -20 -20 -20 -20 -20 -20 -20 -20 -20 -20 -20 -20 -20 -20 -20 -20 -20 -20 -20 -20 -13 -20 -20 -20 -20 -20 -20 -20 -18 -19
-20 -20 -20 -20 -20 -20 -20 -20 -20 -20 -20 -20 -20 -20 -20 -20 -20 -20 -20 -20 -20 -20 -20 -20 -20 -20 -20 -20 -20 -20 -20 -20 -20 -10 -20 -20 -20 -20 -19 -9 -9 17 17 -10
-20 -20 -20 -20 -20 -20 -20 -20 -20 -20 -20 -20 -20 -20 -20 -20 -20 -20 -20 -20 -20 -20 -20 -20 -20 -20 -20 -20 -20 -20 -20 -20 -20 -20 -20 -20 -20 -10 -3 -6 8 19 -18 -20
-20 -20 -20 -20 -20 -20 -20 -20 -20 -20 -20 -20 -20 -20 -20 -20 -20 -20 -20 -20 -20 -20 -20 -20 -20 -20 -20 -20 -20 -20 -20 -20 -20 -4 -20 -20 -20 -8 -12 -3 35 13 -13 -12
-20 -20 -20 -20 -20 -20 -20 -20 -20 -20 -20 -20 -20 -20 -20 -20 -20 -20 -20 -20 -20 -20 -20 -20 -20 -20 -20 -20 -20 -20 -20 -20 -20 -20 -20 -20 -20 -20 -15 -20 -20 -20 -20 -20
-20 -20 -20 -20 -20 -20 -20 -20 -20 -20 -20 -20 -20 -20 -20 -20 -20 -20 -20 -20 -20 -20 -20 -20 -20 -20 -20 -20 -20 -4 -20 -16 -20 -18 -20 -20 -20 -2 -0 -18 -20 -20 -20 -20
1 -16 -19 -20 -20 -20 -20 -20 -20 -20 -20 -20 -20 -20 -20 -20 -20 -20 -20 -20 -20 -20 -5 7 -18 -20 -20 -20 -20 -11 -20 -20 18 7 3 -6 -1 15 12 3 -20 -19 -19 -20
-1 -16 -4 4 -20 -20 -20 -20 -20 -20 -20 -20 -20 -20 -20 -20 -20 -20 -20 -20 -20 -20 -19 -4 -17 -20 -18 25 25 8 -18 -2 7 8 -14 17 19 -19 -20 -20 -20 -20 -20 -20
-20 -20 -16 -10 -19 -20 -20 -20 -20 -20 -20 -12 -20 -20 -20 -20 -20 -20 -20 -20 -20 -20 -20 -20 -20 4 -2 25 24 -7 -19 -12 -20 -3 -6 -20 -20 -20 -20 -20 -20 -20 -20 -20
16 6 -9 6 -6 -16 -20 -20 -11 -19 -20 -20 -20 -20 -20 -20 -20 -11 -20 -20 -20 -20 -15 -16 -20 -20 -20 4 3 -20 -20 -20 -20 -20 -20 -20 -20 -20 -20 -20 -20 -20 -20 -20
18 -13 16 13 12 14 -12 -16 -20 -20 -20 -18 -7 -20 -20 -20 -20 -20 -20 -20 -9 -3 -20 -20 -20 -20 13 11 -14 -20 -20 -20 -20 -20 -20 -20 -20 -20 -20 -20 -20 -20 -20 -20
24 23 22 21 15 21 11 24 24 33 23 29 21 -4 -3 -11 -20 -20 -10 1 10 8 -19 -20 -20 -2 -11 -20 -20 -20 -20 -20 -20 -20 -20 -20 -20 -20 -20 -20 -20 -20 -20 -20
30 33 30 26 26 26 30 31 23 29 22 10 20 29 25 -9 -1 19 22 23 21 -16 -20 -20 -20 -20 -20 -20 -20 -20 -20 -20 -20 -20 -20 -20 -20 -20 -20 -20 -20 -20 -20 -20
36 36 28 34 23 34 31 30 27 18 13 -5 -9 5 21 21 -10 13 28 18 -9 -20 -20 -20 -20 -20 -20 -20 -20 -20 -20 -20 -20 -20 -20 -20 -20 -20 -20 -20 -20 -20 -20 -20
30 28 32 35 28 15 0 -16 -7 -14 -20 -20 -7 7 20 23 17 1 -17 -20 -20 -20 -20 -20 -20 -20 -20 -20 -20 -20 -20 -20 -20 -20 -20 -20 -20 -20 -20 -20 -20 -20 -20 -20
27 21 18 11 14 -10 -20 -20 -20 -20 1 8 7 -7 -20 -19 -17 -14 -20 -20 -20 -20 -20 -20 -20 -20 -20 -20 -20 -20 -20 -20 -20 -20 -20 -20 -20 -20 -20 -20 -20 -20 -20 -20
5 13 13 9 7 -1 -9 -2 -3 -6 -3 -3 -16 -19 -19 -20 -19 -20 -20 -20 -20 -20 -20 -20 -20 -20 -20 -20 -20 -20 -20 -20 -20 -20 -20 -20 -20 -20 -20 -20 -20 -20 -20 -20
-17 -3 -0 -4 -17 -14 -6 -3 -12 -18 -20 -20 -14 -20 -20 -20 -20 -20 -20 -20 -20 -20 -20 -20 -20 -20 -20 -20 -20 -20 -20 -20 -20 -20 -20 -20 -20 -20 -20 -20 -20 -20 -20 -20
-20 -20 -20 -20 -6 -4 -10 -20 -20 -14 -19 -20 -11 -20 -20 -20 -20 -20 -20 -20 -20 -20 -20 -20 -20 -20 -20 -20 -20 -20 -20 -20 -20 -20 -20 -20 -20 -20 -20 -20 -20 -20 -20 -20

GFSNW_prec_radar_006.txt.gz
Reflectivity
-20 -20 -20 -20 -20 -20 -20 -20 -20 -20 -20 -20 -20 -20 -20 -20 -20 -20 -20 -20 -20 -20 -20 -20 -20 -20 -20 -20 -20 -20 -20 -20 -20 -20 -20 -20 -20 -20 -20 -20 -20 -20 -20 -20
-20 4 -13 -20 -20 -20 -20 -20 -20 -20 -20 -20 -20 -20 -20 -20 -20 -20 -20 -20 -20 -20 -20 -20 -20 -20 -20 -20 -20 -20 -20 -20 -20 -20 -20 -20 -20 -20 -20 -20 -20 -20 3 -20
4 8 3 -20 -20 -20 -20 -20 7 -20 -20 -20 -20 -20 -20 -20 -20 -20 -20 -20 -20 -20 -20 -20 -20 -20 -20 -20 -20 -20 -20 -20 -20 -20 -20 -20 -20 -20 -20 -20 -20 -20 -20 -20
6 9 -16 -20 -20 -20 -20 -20 -20 -20 -20 -20 -20 -20 -20 -20 -20 -20 -20 -20 -20 -20 -20 -20 -20 -20 -20 -20 -20 -20 -20 -20 -20 -20 -20 -20 -20 -20 -20 -20 -20 -4 -20 -20
7 6 -18 -20 -20 -20 -20 -20 -20 -20 -20 -20 -20 -20 -20 -20 -20 -20 -20 -20 -20 -20 -20 -20 -20 -20 -20 -20 -20 -20 -20 -20 -20 -20 -20 -20 -20 -20 -20 -20 -20 -20 -20 -20
10 8 -12 -20 -20 -20 -20 -20 -20 -20 -20 -20 -20 -20 -20 -20 -20 -20 -20 -20 -20 -20 -20 -20 -20 -20 -20 -20 -20 -20 -20 -20 -20 -20 -20 -20 -20 -20 -20 -20 -20 -20 -20 -20
-8 2 -20 -20 -20 -20 -20 -20 -20 -20 -19 -20 -20 -20 -20 -20 -20 -20 -20 -20 -20 -20 -20 -20 -20 -20 -20 -20 -20 -20 -20 -20 -11 -20 -19 -20 -20 -20 -20 -20 -20 -20 -20 -20
-20 -20 -20 -20 -20 -20 -20 -20 -20 -20 23 -20 -20 -20 -20 -20 -20 -20 -20 -20 -20 -20 -20 0 -12 -20 -20 -20 -20 -20 -20 -20 -9 -19 -18 -20 -20 -20 -20 -20 -20 -20 -20 -20
-20 -20 -20 -20 -20 -20 -20 -20 -20 -20 13 2 -20 -20 -20 -20 -20 -20 -20 -20 -20 -20 -20 9 20 -7 -20 -20 -20 -20 -20 -20 -20 -18 10 6 -20 -20 -20 -20 -18 -20 -20 -20
-20 -20 -20 -20 -20 -20 -20 -20 -20 -20 -20 -20 -20 -20 -20 -20 -20 -20 -20 -20 -13 -20 -9 11 -20 -20 -20 -20 -20 -20 -20 -3 -14 -9 8 -8 -20 -20 -20 -5 10 -20 -10 -12
-20 -20 -20 -20 -20 -20 -20 -20 -20 -20 -1 -20 -20 -20 -20 -20 -20 -20 -20 -20 -20 -20 12 -20 -20 -8 -20 -20 -20 -20 -16 -15 -11 -7 -3 -14 -20 -11 8 -8 -20 12 -14 -15
-20 -20 -20 -20 -20 -20 -20 -20 -20 -20 -20 -20 -20 -20 -20 -20 -20 -20 -20 -20 -20 -20 -8 -5 -20 -8 -20 5 -20 -20 -20 -20 -18 -17 -20 -20 -20 16 -20 -20 -12 5 -2 -5
-20 -20 -20 -20 -20 -20 -20 -20 -20 -20 4 -19 -20 -20 -20 -20 -20 -20 -20 -20 -20 -20 -20 -20 -18 18 -20 -20 -20 -19 -20 -20 -20 5 -20 9 13 5 -20 -20 -20 -19 -10 -20
-20 -20 -20 -20 -20 -20 -20 -20 -20 -20 -10 26 -20 -20 -20 -20 -20 -20 -20 -20 -20 -20 -20 2 9 15 -20 -20 -20 -20 -20 -8 -20 2 1 2 -20 -20 -20 10 -5 -18 -20 -20
6 -7 5 1 -20 -20 -20 -20 -20 -20 -20 19 -20 -20 -20 -20 -20 -20 -20 -20 -20 -20 3 11 15 -20 -20 -20 -20 -20 -20 -20 11 -20 7 7 -9 -20 12 1 -20 -20 -20 -20
-16 7 3 -20 -20 -20 -20 -20 -20 -20 -20 -12 23 -20 -20 -20 -20 -20 -20 -20 -20 -20 -7 2 -20 -20 -20 8 -13 -20 -20 -20 -19 -15 16 -13 -18 -20 -20 -20 -20 -20 -20 -20
-20 -4 -13 -15 -11 -20 -6 -20 -20 -20 -20 14 20 -18 -20 -20 -20 -20 -20 -20 -12 -19 -13 -4 -6 -13 -9 6 -10 -20 4 -20 -12 5 10 -19 -20 -20 -20 -20 -20 -20 -20 -20
-16 5 9 -7 -20 -20 -20 -20 -20 -20 -20 -16 -13 -5 -20 -20 -20 -9 -20 -20 -20 -11 10 -7 -20 -20 -6 -10 -20 -20 -20 -20 -6 -20 -18 -17 -20 -20 -20 -20 -20 -20 -20 -20
7 16 1 8 8 -2 -20 -20 -4 -20 -20 -14 16 -16 -3 -20 -20 -20 -20 -20 11 -20 7 -17 -20 -18 -1 -10 -20 -20 -12 4 24 1 -20 -20 -20 -20 -20 -20 -20 -20 -20 -20
25 16 9 17 10 21 13 -2 -20 -20 -20 -20 12 -6 4 -19 -20 -13 3 -20 -8 -20 -20 -20 -19 -2 -20 -20 -20 -20 -20 -3 -20 -20 -20 -20 -20 -20 -20 -20 -20 -20 -20 -20
34 37 32 31 24 18 20 8 6 12 6 -0 4 9 0 -11 12 11 3 25 18 -6 -6 -3 5 -9 -20 -20 -20 -20 -20 -20 -20 -20 -20 -20 -20 -20 -20 -20 -20 -20 -20 -20
36 35 27 27 28 28 30 31 28 22 17 21 2 11 2 18 21 30 32 29 22 9 -20 -10 -15 -20 -20 -20 -20 -20 -20 -20 -20 -20 -20 -20 -20 -20 -20 -20 -20 -20 -20 -20
37 31 33 35 37 29 28 18 16 11 -3 -14 1 14 29 26 -1 18 24 9 -3 -20 -19 -19 -20 -20 -20 -20 -20 -20 -20 -20 -20 -20 -20 -20 -20 -20 -20 -20 -20 -20 -20 -20
37 37 27 33 24 30 23 18 3 -4 -11 -16 -18 -7 -1 7 -16 4 1 -7 -19 -1 -3 -20 -20 -20 -20 -20 -20 -20 -20 -20 -20 -20 -20 -20 -20 -20 -20 -20 -20 -20 -20 -20
21 21 19 20 22 19 13 -1 -6 -13 -20 -19 -12 -3 1 -2 -3 -17 1 -11 -6 -9 -20 -20 -20 -20 -20 -20 -20 -20 -20 -20 -20 -20 -20 -20 -20 -20 -20 -20 -20 -20 -20 -20
-1 6 14 19 18 18 26 28 11 7 6 12 0 -19 -20 -20 -20 -20 -20 -20 -20 -20 -20 -20 -20 -20 -20 -20 -20 -20 -20 -20 -20 -20 -20 -20 -20 -20 -20 -20 -20 -20 -20 -20
-1 -20 2 8 10 11 9 9 9 14 18 10 10 4 -9 -20 -20 -20 -20 -18 -20 -20 -20 -20 -20 -20 -20 -20 -20 -20 -20 -20 -20 -20 -20 -20 -20 -20 -20 -20 -20 -20 -20 -20

GFSNW_prec_radar_009.txt.gz
Reflectivity
-20 -16 -20 -20 -20 -20 -20 -20 -20 -20 -20 -20 -20 -20 -20 -20 -20 -20 -20 -20 -20 -20 -20 -20 -20 -20 -20 -20 -20 -20 -20 -20 -20 -20 -20 -20 -20 -20 -20 -20 -20 -20 -20 -20
-1 -20 -16 -20 -20 -20 -20 -20 -20 -20 -20 -20 -20 -20 -20 -20 -20 -20 -20 -20 -20 -20 -20 -20 -20 -20 -20 -20 -20 -20 -20 -20 -20 -20 -20 -20 -20 -20 -20 -20 -20 -20 -6 -20
-1 -20 -20 -20 -20 -20 -17 -20 -20 -20 -20 -20 -20 -20 -20 -20 -20 -20 -20 -20 -20 -20 -20 -20 -20 -20 -20 -20 -20 -20 -20 -20 -20 -20 -20 -20 -20 -20 -20 -20 -20 -20 -20 -20
1 -20 -20 -20 -20 -20 -20 -20 -20 -20 -20 -20 -20 -20 -20 -20 -20 -20 -20 -20 -20 -20 -20 -20 -20 -20 -20 -20 -20 -20 -20 -20 -20 -20 -20 -20 -20 -20 -20 -20 -20 -19 -20 -20
-10 -3 -20 -20 -20 -20 -20 -20 -20 -20 -20 -20 -20 -20 -20 -20 -20 -20 -20 -20 -20 -20 -20 -20 -20 -20 -20 -20 -20 -20 -20 -20 -20 -20 -20 -20 -20 -20 -20 -20 -20 -20 -20 -20
2 -4 -20 -20 -20 -11 -20 -20 -20 -20 -20 -20 -20 -20 -20 -20 -20 -20 -20 -20 -20 -20 -20 -20 -20 -20 -20 -20 -20 -20 -20 -20 -20 -20 -20 -20 -20 -20 -20 -20 -20 -20 -20 -20
-18 -20 -20 -20 -20 -20 -20 -20 -20 -20 -20 -20 -20 -20 -20 -20 -20 -20 -20 -20 -19 -20 -20 -20 -20 -20 -20 -20 -20 -20 -20 -20 -20 -20 -20 -16 -20 -20 -20 -20 -20 -20 -20 -20
-20 -20 -20 -20 -20 -20 -20 -20 -20 -20 25 -20 -20 -20 -20 -20 -20 -20 -20 -20 -20 -20 -20 -20 -20 -5 -20 -20 -20 -20 -20 -20 -20 -19 -20 -20 -20 -20 -20 -20 -20 -20 -20 -20
-20 -20 -20 -20 -20 -20 -20 -20 -20 -20 15 -7 -20 -20 -20 -20 -20 -20 -20 -20 -20 -20 -20 -20 -10 -20 -20 -20 -20 -20 -20 -20 -20 -1 2 -5 -20 -20 -20 -20 -18 -20 -20 -20
-20 -20 -20 -20 -20 -20 -20 -20 -20 -20 -20 -20 -20 -20 -20 -20 -20 -20 -20 -20 -14 -20 -18 15 -20 -20 -20 -20 -20 -20 -20 -20 -11 -4 7 -12 -20 -20 -20 -10 18 -5 -20 -20
-20 -20 -20 -20 -20 -20 -20 -20 -20 -20 -8 -20 -20 -20 -20 -20 -20 -20 -20 -20 -20 -20 6 -16 -20 -20 -20 -20 -20 -20 -20 -12 -20 0 -2 3 -20 -20 -1 3 -20 -20 -20 -7
-20 -20 -20 -20 -20 -20 -20 -20 -20 -20 -20 -20 -20 -20 -20 -20 -20 -20 -20 -20 -20 -20 -13 -7 -20 -5 13 -18 -20 -20 -20 -20 -20 2 -20 -20 -7 23 15 10 -11 -5 0 29
-20 -20 -20 -20 -20 -20 -20 -20 -20 -20 -15 -20 -20 -20 -20 -20 -20 -20 -20 -20 -20 -20 -20 -20 -20 14 -20 -20 -20 -20 -20 -20 -19 -1 -20 -20 -20 -17 18 -19 -20 -20 -20 3
-20 -20 -20 -20 -20 -20 -20 -20 -20 -20 -20 28 -20 -20 -20 -20 -20 -20 -20 -20 -20 -20 -20 6 6 14 -20 -16 -20 -20 -20 -20 -20 3 -20 -20 -20 -20 -20 -20 -20 -18 -8 -20
3 6 0 2 -20 -20 -20 -20 -20 -20 -20 11 -20 -20 -20 -20 -20 -20 -20 -20 -20 -20 -6 15 6 -20 -20 4 -20 -20 -20 -20 1 7 -5 -14 1 -3 23 -10 4 -20 -20 -20
6 6 -19 -7 -20 -20 -20 -20 -20 -20 -20 -13 12 -20 -20 -20 -20 -20 -20 -20 -20 -20 -2 -4 -20 -19 -20 -20 4 -20 -20 -20 -20 -6 -20 -20 -20 -6 24 -6 -20 -20 -20 -20
-20 -1 -0 2 -20 -1 11 7 -15 -19 -20 10 14 -18 -20 -20 -20 -20 -20 -20 1 -13 -13 -15 -20 -15 -9 15 -17 -20 -20 -20 -20 -20 -20 -18 23 8 -19 -20 -20 -20 -20 -20
-18 -20 -3 -18 -20 -20 -5 -20 -20 -20 -20 -15 -7 -3 -20 -20 -4 -15 -20 -4 -16 4 10 -14 -20 7 -9 -6 -20 -20 -20 -20 -20 -20 -20 6 29 -5 -20 -20 -20 -20 -20 -20
-13 -8 8 0 -4 -5 -7 -20 -20 -20 -18 -15 10 -19 -16 -20 -18 -20 -20 -20 3 -13 12 -9 -12 -19 -3 -20 -20 -20 -20 -20 -20 -20 -20 -20 -20 -20 -20 -20 -20 -20 -20 -20
18 25 28 -3 -6 17 -20 -10 -20 -20 -20 -16 -9 -6 -19 -20 -20 11 -20 -19 -20 8 -20 -20 -20 -19 -20 -20 -20 -20 -20 -20 -20 -20 -20 -20 -20 -20 -20 -20 -20 -20 -20 -20
34 35 33 26 24 9 -11 -17 7 -16 -5 -20 -20 -20 -20 -15 -13 -20 -20 3 5 -12 -4 -2 2 -0 -20 -20 -20 -20 -20 -20 -20 -20 -20 -20 -20 -20 -20 -20 -20 -20 -20 -20
31 33 27 29 34 23 33 34 14 -2 2 -20 -20 -15 -20 -20 -20 -20 7 30 30 2 -19 4 -10 -20 -20 -20 -20 -20 -20 -20 -20 -20 -20 -20 -20 -20 -20 -20 -20 -20 -20 -20
28 37 32 33 31 27 23 15 25 2 2 4 14 6 -0 14 15 28 30 14 21 10 -4 -5 -19 -20 -20 -12 -20 -20 -20 -20 -20 -20 -20 -20 -20 -20 -20 -20 -20 -20 -20 -20
30 34 30 35 29 37 35 23 -2 -4 -8 -11 -8 27 31 29 23 30 27 12 -12 1 4 -20 -14 -20 -20 -20 -20 -20 -20 -20 -20 -20 -20 -20 -20 -20 -20 -20 -20 -20 -20 -20
24 30 23 26 30 30 33 31 25 24 27 32 32 25 17 25 19 21 5 0 -4 -0 -3 -16 -16 -20 -20 -20 -20 -20 -20 -20 -20 -20 -20 -20 -20 -20 -20 -20 -20 -20 -20 -20
3 27 24 26 26 28 31 30 32 30 27 21 23 22 16 3 8 1 4 9 -20 -20 -20 -20 -20 -20 -20 -20 -20 -20 -20 -20 -20 -20 -20 -20 -20 -20 -20 -20 -20 -20 -20 -20
10 -2 17 21 27 22 33 27 33 29 31 33 27 14 14 13 10 4 8 2 -12 -20 -20 -20 -20 -20 -20 -20 -20 -20 -20 -20 -20 -20 -20 -20 -20 -20 -20 -20 -20 -20 -20 -20

GFSNW_prec_radar_012.txt.gz
Reflectivity
-6 -1 -20 -20 -20 -20 -20 -20 -20 -20 -20 -20 -20 -20 -20 -20 -20 -20 -20 -20 -20 -20 -20 -20 -20 -20 -20 -20 -20 -20 -20 -20 -20 -20 -20 -20 -20 -20 -20 -20 -20 -20 -20 -20
2 3 -20 -20 -20 -11 -20 -20 -20 -20 -20 -20 -14 -20 -20 -20 -20 -20 -20 -20 -20 -20 -20 -20 -20 -20 -20 -20 -20 -20 -20 -20 -20 -20 -20 -20 -20 -20 -20 -20 -20 -20 -20 -20
1 3 -20 -20 -20 -20 -20 -20 -20 -20 -20 -20 -20 -20 -20 -20 -20 -20 -20 -20 -20 -20 -20 -20 -20 -20 -20 -20 -20 -20 -20 -20 -20 -20 -20 -20 -20 -20 -20 -20 -13 -20 -20 -20
3 -2 -20 -20 -20 -20 -20 -20 -20 -20 -20 -20 -20 -20 -20 -20 -20 -20 -20 -20 -20 -20 -20 -20 -20 -20 -20 -20 -20 -20 -20 -20 -20 -20 -20 -20 -20 -20 -20 -20 -20 -20 -20 -20
6 -7 -20 -20 -20 -20 -20 -20 -20 -20 -20 -20 -20 -20 -20 -20 -20 -20 -20 -20 -20 -20 -20 -20 -20 -20 -20 -20 -20 -20 -20 -20 -20 -20 -20 -20 -20 -20 -20 -20 -20 -20 -20 -20
5 -20 -20 -20 -20 -20 -20 -20 -20 -20 -20 -20 -20 -20 -20 -20 -20 -20 -20 -20 -20 -20 -20 -20 -20 -20 -20 -20 -20 -20 -20 -20 -20 -20 -20 -20 -20 -20 -20 -20 -20 -20 -20 -19
-20 -20 -20 -20 -20 -20 -20 -20 -20 -11 -20 -20 -20 -20 -20 -20 -20 -20 -20 -20 -20 -20 -20 -20 -20 -20 -20 -20 -20 -20 -20 -20 -20 -20 -20 -20 -20 -20 -20 -20 -20 -20 -20 -3
-20 -20 -20 -20 -20 -20 -20 -20 -20 -20 18 -20 -20 -20 -20 -20 -20 -20 -20 -20 -20 -20 -20 -20 -20 -20 -20 -20 -20 -20 -20 -20 -20 -20 -20 -20 -20 -20 -20 -20 -20 -20 -20 -20
-20 -20 -20 -20 -20 -20 -20 -20 -20 -20 10 -20 -20 -20 -20 -20 -20 -20 -20 -20 -20 -20 -20 -20 -20 -20 -20 -20 -20 -20 -20 -20 -20 -20 -20 -20 -20 -20 -20 -20 -20 -20 -20 -20
-20 -20 -20 -20 -20 -20 -20 -20 -20 -20 -20 -20 -20 -20 -20 -20 -20 -20 -20 -20 -20 -20 -13 15 -20 -20 -20 -20 -20 -20 -20 -20 -20 -13 -18 -18 -20 -20 -20 -20 -0 -20 -20 -20
-20 -20 -20 -20 -20 -20 -20 -20 -20 -20 -20 -20 -20 -20 -20 -20 -20 -18 -20 -20 -20 -20 -20 -20 -20 -20 -20 -20 -20 -20 -20 -20 -18 -20 -11 -17 -20 -20 -20 -14 -10 -14 -20 -20
-20 -20 -20 -20 -20 -20 -20 -20 -20 -20 -20 -20 -20 -20 -20 -20 -20 -20 -20 -20 -20 -20 -19 5 -20 -20 6 -20 -20 -20 -20 -20 -20 -20 -20 -20 -20 -20 -20 -20 -20 -17 17 -20
-20 -20 -20 -20 -20 -20 -20 -20 -20 -20 -18 -20 -20 -20 -20 -20 -20 -20 -20 -20 -20 -20 -20 -20 -20 2 -20 -20 -20 -20 -20 -20 -20 -20 -20 -20 -20 1 -0 -20 -20 -20 -20 -20
-20 -20 -20 -20 -20 -20 -20 -20 -20 -20 -20 23 -20 -20 -20 -20 -20 -20 -20 -20 -20 -20 -20 -4 10 -14 -20 -20 -20 -20 -18 -20 -20 -20 -20 -20 -19 -20 -20 -20 1 5 -2 -20
9 7 8 7 -20 -20 -20 -20 -20 -20 -6 6 -20 -20 -20 -20 -20 -20 -20 -20 -20 -20 -6 9 -13 -20 -18 -13 -20 -20 -12 -17 -20 -20 -20 -13 -11 -20 -20 -20 1 8 -20 -20
5 7 10 4 -7 -20 -20 -20 -20 -20 -20 -13 10 -20 -20 -20 -20 -20 -20 -20 -20 -20 -20 -20 -20 -20 -20 10 -16 -16 -15 -20 -20 -20 -20 -20 -20 -20 -20 -20 -4 -18 -20 -20
10 -3 10 10 -1 -13 -8 -20 -20 -20 -20 5 10 -19 -20 -20 -20 -20 -20 -20 0 -1 -12 2 -20 -20 12 7 -19 -20 -20 -20 -20 -20 -20 -20 -20 -20 -20 -20 -20 -20 -20 -20
-20 -20 -20 -20 -20 -20 -19 -20 -20 -20 -20 -20 -14 -6 -20 -20 -3 -14 -20 -20 -20 -18 6 -9 -11 -5 -14 -6 -20 -20 -20 -20 -20 -20 -20 -20 -20 -20 -20 -20 -20 -20 -20 -20
-12 -11 -11 -17 -18 13 -9 -16 -20 -20 -17 -3 14 -15 -16 -20 -20 -19 -20 -20 -2 -18 10 -12 -16 7 -14 -20 -20 -20 -20 -20 -20 -20 -20 -20 -20 -20 -20 -20 -20 -20 -20 -20
13 5 -1 4 -2 -14 -20 -20 -20 -20 -20 -11 2 -11 -20 -20 -20 5 -20 1 7 -20 -20 -20 -20 -20 -20 -20 -20 -20 -20 -20 -20 -20 -20 -20 -20 -20 -20 -20 -20 -20 -20 -20
24 25 12 8 17 -12 9 4 -6 -18 1 -18 -20 -12 -20 -20 -20 -4 -20 -20 5 -14 -20 -6 -14 -20 -20 -20 -20 -20 -20 -20 -18 -18 -19 -20 -20 -20 -20 -20 -20 -20 -20 -20
22 26 25 21 27 27 29 29 9 -20 -14 -20 -20 -20 -20 -18 -16 -20 -20 -17 -20 -20 -14 19 -2 -20 -20 -20 -20 -20 -20 -20 -20 -20 -20 -20 -20 -20 -20 -20 -20 -20 -20 -20
24 32 35 33 30 29 27 17 -4 -4 -7 -8 -11 -20 -20 -20 -20 -11 9 10 0 -9 9 -17 -9 1 -20 -20 -20 -20 -20 -20 -20 -20 -20 -20 -20 -20 -20 -20 -20 -20 -20 -20
8 30 24 28 24 29 27 22 20 17 2 -10 -18 -9 -20 -6 -11 28 18 27 16 6 9 -18 17 -6 -4 -20 -20 -20 -20 -20 -20 -20 -20 -20 -20 -20 -20 -20 -20 -20 -20 -20
-3 20 18 22 25 28 26 28 22 9 20 30 29 28 24 27 16 29 19 11 13 9 20 27 8 -6 -1 -8 -20 -20 -20 -20 -20 -20 -20 -20 -20 -20 -20 -20 -20 -20 -20 -20
-18 -8 7 21 20 27 30 34 32 31 36 33 29 30 27 17 24 13 15 14 14 31 20 5 2 1 -4 -9 -19 -20 -20 -20 -20 -20 -20 -20 -20 -20 -20 -20 -20 -20 -20 -20
-20 -2 -5 -3 21 24 26 33 31 23 23 27 25 15 16 13 11 10 23 15 19 6 -10 -4 3 1 -13 -20 -20 -20 -20 -20 -20 -20 -20 -20 -20 -20 -20 -20 -20 -20 -20 -20

GFSNW_prec_radar_015.txt.gz
Reflectivity
3 -6 -20 -20 -20 -20 -20 -20 -20 -20 -20 -20 -20 -20 -20 -20 -20 -20 -20 -20 -20 -20 -20 -20 -20 -20 -20 -20 -20 -20 -20 -20 -20 -20 -20 -20 -20 -20 -20 -20 -20 -20 -20 -20
-4 -2 -20 -20 -20 -20 -20 -20 -20 -20 -20 -20 -20 -20 -20 -20 -20 -20 -20 -20 -20 -20 -20 -20 -20 -20 -20 -20 -20 -20 -20 -20 -20 -20 -20 -20 -20 -20 -20 -20 -20 -20 -20 -20
8 -20 -17 -20 -20 -20 -20 -20 -20 -20 -20 -20 -20 -20 -20 -20 -20 -20 -20 -20 -20 -20 -20 -20 -20 -20 -20 -20 -20 -20 -20 -20 -20 -20 -20 -20 -20 -20 -20 -20 -20 -20 -20 -20
9 -20 -20 -20 -20 -20 -20 -20 -20 -20 -20 -20 -20 -20 -20 -20 -20 -20 -20 -20 -20 -20 -20 -20 -20 -20 -20 -20 -20 -20 -20 -20 -20 -20 -20 -20 -20 -20 -20 -20 -20 -20 -20 -20
8 -20 -20 -20 -20 -20 -20 -2 -15 -20 -20 -20 -20 -20 -20 -20 -20 -20 -20 -20 -20 -20 -20 -20 -20 -20 -20 -20 -20 -20 -20 -20 -20 -20 -20 -20 -20 -20 -20 -20 -20 -20 -20 -20
4 -20 -20 -20 -20 -20 -20 12 -13 -20 -20 -20 -20 -20 -20 -20 -20 -20 -20 -20 -20 -20 -20 -20 -20 -20 -20 -20 -20 -20 -20 -20 -20 -20 -20 -20 -20 -20 -20 -20 -20 -20 -20 -20
-20 -20 -20 -20 -20 -20 -20 -20 -20 -20 -20 -20 -20 -20 -20 -20 -20 -20 -20 -20 -20 -20 -20 -20 -20 -20 -20 -20 -20 -20 -20 -20 -20 -20 -20 -20 -20 -20 -20 -20 -20 -20 -20 -20
-20 -20 -20 -20 -20 -20 -20 -20 -20 -20 -17 -20 -20 -20 -20 -20 -20 -20 -20 -20 -20 -20 -20 -20 -20 -20 -20 -20 -20 -20 -20 -20 -20 -20 -20 -20 -20 -20 -20 -20 -20 -20 -20 -20
-20 -20 -20 -20 -20 -20 -20 -20 -20 -20 -20 -20 -20 -20 -20 -20 -20 -20 -20 -20 -20 -20 -20 -20 -20 -20 -20 -20 -20 -20 -20 -20 -20 -20 -20 -20 -20 -20 -20 -20 -20 -20 -20 -20
-20 -20 -20 -20 -20 -20 -20 -20 -20 -20 -20 -20 -20 -20 -20 -20 -20 -20 -20 -20 -20 -20 -20 -20 -20 -20 -20 -20 -20 -20 -20 -20 -20 -20 -20 -20 -20 -20 -20 -20 -20 -20 -20 -20
-20 -20 -20 -20 -20 -20 -20 -20 -20 -20 -20 -20 -20 -20 -20 -20 -20 -20 -20 -20 -20 -20 -20 -20 -19 -20 -20 -20 -20 -20 -20 -20 -20 -20 -20 -20 -20 -20 -20 -20 -20 -20 -20 -20
-20 -20 -20 -20 -20 -20 -20 -20 -20 -20 -20 -20 -20 -20 -20 -20 -20 -20 -20 -20 -20 -20 -20 3 -19 -20 2 -20 -20 -20 -20 -20 -20 -20 -20 -20 -20 -20 -20 -20 -20 -20 -20 -20
-20 -20 -20 -20 -20 -20 -20 -20 -20 -20 -20 -20 -20 -20 -20 -20 -20 -13 -20 -20 -20 -20 -20 -20 -20 -20 -20 -20 -20 -20 -20 -20 -20 -20 -20 -20 -20 -20 -20 -20 -20 -20 -20 -20
-20 -20 -12 8 -20 -20 -20 -20 -20 -20 -20 7 -20 -20 -20 -20 -20 -20 -20 -20 -20 -20 -20 -20 -9 -20 -20 -20 -20 -20 -19 -19 -20 -19 -20 -20 -20 -20 -20 -20 -20 -4 -1 -20
10 10 11 10 6 -20 -20 -20 -20 -20 -20 -18 -20 -20 -20 -20 -20 -20 -20 -20 -20 -20 -20 -20 -20 -20 -20 -20 -20 -20 -10 -16 -15 5 -2 -20 -20 -20 -20 -20 -15 -20 -20 -20
11 8 8 8 1 -20 -20 -20 -20 -20 -20 -20 -20 -20 -20 -20 -20 -20 -20 -20 -20 -20 -20 -5 -20 -20 -20 -16 -20 -18 -12 -8 11 -5 -20 -20 -20 -20 -20 -20 -20 -20 -20 -20
9 11 10 -20 -20 -20 -20 -20 -20 -20 -20 -20 -7 -16 -20 -20 -20 -20 -20 -20 -20 -20 -20 -17 -20 -20 -20 10 -20 -17 -12 -13 -20 -20 -20 -20 -20 -20 -20 -20 -20 -20 -20 -20
10 9 -18 -20 -16 -12 -20 -20 -20 -11 -20 -20 -20 -20 -20 -20 -20 -20 -20 -15 -8 -20 -20 -20 -20 -20 -10 -10 -20 -20 -20 -20 -20 -20 -20 -20 -19 -20 -20 -20 -20 -20 -20 -20
-3 -20 -20 -20 -20 -20 -20 -20 -12 -20 -20 -20 -9 -20 -20 -20 -20 -20 -20 -20 -20 -20 -7 -16 -20 -20 2 -20 -20 -20 -20 -20 -20 -20 -20 14 -5 -20 -20 -20 -20 -20 -20 -20
-19 -20 -20 -20 -20 -10 -20 -20 -20 -20 -20 -20 -20 -20 -20 -20 -20 -11 -20 -20 -20 -20 -20 -20 -20 -20 -20 -20 -20 -20 -20 -20 -20 -20 6 15 -11 -20 -20 -20 -20 -20 -20 -20
17 20 -0 -15 -6 9 -14 -20 -17 -17 -20 -18 -18 -20 -20 -20 -20 -20 -20 -20 -19 -5 -20 -20 -20 -20 -20 -20 -20 -20 -20 -20 -11 3 0 -8 -20 -20 -20 -20 -20 -20 -20 -20
22 22 19 8 17 22 18 5 -20 -12 -20 -20 -0 -20 -20 -20 -20 -19 -20 -20 -20 -20 -20 -12 -3 -20 -20 -20 -20 -20 -17 4 16 8 -12 -18 -4 -20 -20 -20 -20 -20 -20 -20
16 26 28 30 29 25 18 -8 8 7 -6 -9 -0 -20 -20 -20 -20 -11 -20 -20 -10 -10 -8 -20 -20 -8 -19 -20 -20 -20 -18 -20 -20 -20 -2 -6 -20 -20 -20 -20 -20 -20 -20 -20
-18 19 14 20 21 11 5 -12 -3 22 22 8 0 -7 -7 -10 -6 14 19 21 15 7 -8 -20 12 8 27 8 -20 -20 -20 -20 -14 -13 -20 -20 -20 -20 -20 -20 -20 -20 -20 -20
-16 -5 -17 -0 5 18 8 -5 11 17 19 27 27 22 24 9 15 17 18 14 15 12 17 19 30 23 7 -4 -16 -17 -12 -10 -20 -20 -20 -20 -20 -20 -20 -20 -20 -20 -20 -20
-20 -20 -20 -5 -2 -6 6 12 14 25 29 29 30 19 15 13 10 8 14 13 15 23 23 17 14 20 13 6 5 -19 -20 -20 -20 -20 -20 -20 -20 -20 -20 -20 -20 -20 -20 -20
-20 -20 -19 4 -20 -20 13 21 9 4 9 -6 21 5 1 3 8 10 8 15 11 6 3 5 6 -1 -11 -16 -16 -20 -20 -20 -20 -20 -20 -20 -20 -20 -20 -20 -20 -20 -20 -20

GFSNW_prec_radar_021.txt.gz
Reflectivity
3 2 -20 -20 -20 -20 -20 -20 -20 -20 -20 -20 -20 -20 -20 -20 -20 -20 -20 -20 -20 -20 -20 -20 -20 -20 -20 -20 -20 -20 -20 -20 -20 -20 -20 -20 -20 -20 -20 -20 -20 -20 -20 -20
-12 3 -20 -20 -20 -20 -20 -20 -20 -20 -20 -20 -20 -20 -20 -20 -20 -20 -20 -20 -20 -20 -20 -20 -20 -20 -20 -20 -20 -20 -20 -20 -20 -20 -20 -20 -20 -20 -20 -20 -20 -20 -20 -20
6 1 -18 -20 -20 -20 -20 -20 -20 -20 -20 -20 -20 -20 -20 -20 -20 -20 -20 -20 -20 -20 -20 -20 -20 -20 -20 -20 -20 -20 -20 -20 -20 -20 -20 -20 -20 -20 -20 -20 -20 -20 -20 -20
-4 -8 -20 -20 -20 -20 -20 -20 -20 -20 -20 -20 -20 -20 -20 -20 -20 -20 -20 -20 -20 -20 -20 -20 -20 -20 -20 -20 -20 -20 -20 -20 -20 -20 -20 -20 -20 -20 -20 -20 -20 -20 -20 -20
-20 -20 -20 -20 -20 -20 -20 -20 -20 -20 -20 -20 -20 -20 -20 -20 -20 -20 -20 -20 -20 -20 -20 -20 -20 -20 -20 -20 -20 -20 -20 -20 -20 -20 -20 -20 -20 -20 -20 -20 -20 -20 -20 -20
-20 -20 -20 -20 -20 -20 -20 -20 -20 -20 -20 -20 -20 -20 -20 -20 -20 -20 -20 -20 -20 -20 -20 -20 -20 -20 -20 -20 -20 -20 -20 -20 -20 -20 -20 -20 -20 -20 -20 -20 -20 -20 -20 -20
-20 -20 -20 -20 -20 -20 -20 -20 -20 -20 -20 -20 -20 -20 -20 -20 -20 -20 -20 -20 -20 -20 -20 -20 -20 -20 -20 -20 -20 -20 -20 -20 -20 -20 -20 -20 -20 -20 -20 -20 -20 -20 -20 -20
-20 -20 -20 -20 -20 -20 -20 -20 -20 -20 -20 -20 -20 -20 -20 -20 -20 -20 -20 -20 -20 -20 -20 -20 -20 -20 -20 -20 -20 -20 -20 -20 -20 -20 -20 -20 -20 -20 -20 -20 -20 -20 -20 -20
-20 -20 -20 -20 -20 -19 24 -20 -20 -20 -20 -20 -20 -20 -20 -20 -20 -20 -20 -20 -20 -20 -20 -20 -20 -20 -20 -20 -20 -20 -20 -20 -20 -20 -20 -20 -20 -20 -20 -20 -20 -20 -20 -20
-20 -20 -20 -20 -20 -20 5 -20 -20 -20 -20 -20 -20 -20 -20 -20 -20 -20 -20 -20 -20 -20 -20 -20 -20 -20 -20 -20 -20 -20 -20 -20 -20 -20 -20 -20 -20 -20 -20 -20 -20 -20 -20 -20
-20 -20 -20 -20 -20 -15 -14 -20 -20 -20 -20 -20 -20 -20 -20 -20 -20 -20 -20 -20 -20 -20 -20 -20 -20 -20 -20 -20 -20 -20 -20 -20 -20 -20 -20 -20 -20 -20 -20 -20 -20 -20 -20 -20
-20 8 12 4 -20 -20 -20 -20 -20 -20 -20 -20 -20 -20 -20 -20 -20 -20 -20 -20 -20 -20 -20 -20 -20 -20 -20 -20 -20 -20 -20 -20 -20 -20 -20 -20 -20 -20 -20 -20 -20 -20 -20 -20
8 11 11 9 3 -20 -20 -20 -20 -20 -20 -20 -20 -20 -20 -20 -20 -20 -20 -20 -20 -20 -20 -20 -20 -20 -20 -20 -20 -20 -20 -20 -20 -20 -20 -20 -20 -20 -20 -20 -20 -20 -20 -20
5 8 8 10 4 -20 -20 -20 -20 -20 -20 -20 -20 -20 -20 -20 -20 -20 -20 -20 -20 -20 -20 -20 -20 -20 -20 -20 -20 -20 -20 -20 -20 -20 -20 -20 -20 -20 -20 -20 -20 -20 -20 -20
3 -20 -12 -13 -20 -20 -20 -20 -20 -20 -20 -20 -20 -20 -20 -20 -20 -20 -20 -20 -20 -20 -20 -20 -20 -20 -20 -20 -20 -20 -20 -20 -20 -20 -20 -20 -20 -20 -20 -20 -20 -20 -20 -20
10 -5 -20 -20 -20 -20 -20 -20 -20 -20 -20 -20 -20 -20 -20 -20 -20 -20 -20 -20 -20 -20 -20 -20 -20 -20 -20 -20 -20 -20 -20 -20 -20 -20 -20 -20 -20 -20 -20 -20 -20 -20 -20 -20
9 4 -20 -20 -20 -20 -20 -20 -20 -13 -20 -20 -20 -20 -20 -20 -20 -20 -20 -20 -20 -20 -20 2 -20 -20 -20 -20 -20 -20 -20 -20 -20 -20 -20 -20 -20 -20 -20 -20 -20 -20 -14 -20
11 -20 -20 -19 -20 -20 -20 -20 -14 -14 -20 -20 -20 -20 -20 -20 -8 -8 -20 -7 -20 -20 -18 -5 -19 -3 -8 -13 -20 -20 -20 -20 -20 -20 -20 -20 -20 -20 -20 -20 -20 -4 -0 28
2 -20 -20 -20 -20 -20 -20 -20 -6 -20 -20 -20 -8 -20 -20 -20 -20 -20 -20 -17 -20 -20 -13 -18 -20 -3 -20 -20 -20 -20 -20 -20 -20 -20 -20 -20 -20 -20 -19 -15 -20 20 26 14
-20 -20 -20 -20 -20 -4 -20 -20 -20 -20 -20 -20 -2 -19 -20 -20 -20 -20 -20 -9 -20 -20 -20 -20 -20 -20 -20 -20 -20 -20 -20 -20 -20 -20 -20 -20 -20 -20 -19 22 35 25 25 20
-20 -20 -6 -20 -20 -20 -20 -20 -20 -20 -20 -20 -20 -3 -20 -20 -20 -20 -20 -20 -20 -6 -20 -20 -14 -20 -20 -20 -20 -20 -20 -20 -20 -20 -20 -20 9 28 38 19 10 12 6 -15
-20 -20 -20 -20 -20 -20 -20 -20 -20 -14 -20 -20 0 -20 -20 -20 -20 -20 -20 -20 -20 -20 -20 -20 -20 -20 -20 -20 -20 -20 -20 -20 -20 -18 -3 18 32 26 22 13 2 3 -8 -7
-20 -18 -20 -20 -20 -20 -10 1 -3 -20 -14 -10 -20 -20 -20 -20 -6 0 14 7 -14 -12 -20 -20 8 4 2 15 18 24 29 28 20 21 24 9 14 21 15 6 -5 -4 -6 -19
23 13 21 -6 -10 -17 -4 -20 -19 -8 -11 -11 -15 -19 -18 -13 -13 11 -12 1 -6 1 -20 -18 3 28 26 11 3 -20 -3 15 19 4 0 1 0 -2 -7 -14 -17 -20 -14 -7
4 7 7 1 -19 2 -11 -6 9 17 20 17 20 14 17 8 13 -13 -5 6 10 -8 -18 0 17 30 27 -19 -20 0 -2 6 -3 -5 -20 -20 -20 -20 -20 -20 -20 -20 -20 -20
-20 -20 -20 -20 -14 -20 -9 3 -18 -13 7 16 15 -8 -12 8 5 -14 -17 -20 -20 -20 -18 -2 18 23 27 28 29 23 -0 -4 8 3 -1 -19 -20 -20 -20 -20 -20 -20 -20 -20
-20 -20 -20 -20 -20 -12 -7 18 -6 -9 -8 -20 -20 -20 -20 -20 -20 -18 -11 3 3 9 15 2 5 6 6 5 5 6 6 1 -1 -10 -20 -20 -20 -20 -20 -20 -20 -20 -20 -20

GFSNW_prec_radar_024.txt.gz
Reflectivity
-20 -20 10 -4 -20 -20 -20 -20 -20 -20 -20 -20 -20 -20 -20 -20 -20 -20 -20 -20 -20 -20 -20 -20 -20 -20 -20 -20 -20 -20 -20 -20 -20 -20 -20 -20 -20 -20 -20 -20 -20 -20 -20 -20
-19 10 5 -20 -20 -20 -20 -20 -20 -20 -20 -20 -20 -20 -20 -20 -20 -20 -20 -20 -20 -20 -20 -20 -20 -20 -20 -20 -20 -20 -20 -20 -20 -20 -20 -20 -20 -20 -20 -20 -20 -20 -20 -20
5 10 -8 -20 -20 -20 -20 -20 -20 -20 -20 -20 -20 -20 -20 -20 -20 -20 -20 -20 -20 -20 -20 -20 -20 -20 -20 -20 -20 -20 -20 -20 -20 -20 -20 -20 -20 -20 -20 -20 -20 -20 -20 -20
5 10 -11 -20 -20 -20 -20 -20 -20 -20 -20 -20 -20 -20 -20 -20 -20 -20 -20 -20 -20 -20 -20 -20 -20 -20 -20 -20 -20 -20 -20 -20 -20 -20 -20 -20 -20 -20 -20 -20 -20 -20 -20 -20
10 6 -20 -20 -20 -20 -20 -20 -20 -20 -20 -20 -20 -20 -20 -20 -20 -20 -20 -20 -20 -20 -20 -20 -20 -20 -20 -20 -20 -20 -20 -20 -20 -20 -20 -20 -20 -20 -20 -20 -20 -20 -20 -20
1 -20 -20 -20 -20 -20 -20 -20 -20 -20 -20 -20 -20 -20 -20 -20 -20 -20 -20 -20 -20 -20 -20 -20 -20 -20 -20 -20 -20 -20 -20 -20 -20 -20 -20 -20 -20 -20 -20 -20 -20 -20 -20 -20
-20 -20 -20 -20 -20 -20 -20 -20 -20 -20 -20 -20 -20 -20 -20 -20 -20 -20 -20 -20 -20 -20 -20 -20 -20 -20 -20 -20 -20 -20 -20 -20 -20 -20 -20 -20 -20 -20 -20 -20 -20 -20 -20 -20
-20 -20 -20 -20 -20 -20 -20 -20 -20 -20 -20 -20 -20 -20 -20 -20 -20 -20 -20 -20 -20 -20 -20 -20 -20 -20 -20 -20 -20 -20 -20 -20 -20 -20 -20 -20 -20 -20 -20 -20 -20 -20 -20 -20
-20 -20 -20 -20 -20 -20 -20 -20 -20 -20 -20 -20 -20 -20 -20 -20 -20 -20 -20 -20 -20 -20 -20 -20 -20 -20 -20 -20 -20 -20 -20 -20 -20 -20 -20 -20 -20 -20 -20 -20 -20 -20 -20 -20
-20 -20 -20 -20 -20 -20 -20 2 -20 -20 -20 -20 -20 -20 -20 -20 -20 -20 -20 -20 -20 -20 -20 -20 -20 -20 -20 -20 -20 -20 -20 -20 -20 -20 -20 -20 -20 -20 -20 -20 -20 -20 -20 -20
-19 -3 -11 -20 -20 -20 -20 -3 -20 -20 -20 -20 -20 -20 -20 -20 -20 -20 -20 -20 -20 -20 -20 -20 -20 -20 -20 -20 -20 -20 -20 -20 -20 -20 -20 -20 -20 -20 -20 -20 -20 -20 -20 -20
7 9 8 -13 -20 -20 6 -20 -20 -20 -20 -20 -20 -20 -20 -20 -20 -20 -20 -20 -20 -20 -20 -20 -20 -20 -20 -20 -20 -20 -20 -20 -20 -20 -20 -20 -20 -20 -20 -20 -20 -20 -20 -20
8 10 6 2 -20 -17 12 -18 -20 -20 -20 -20 -20 -20 -20 -20 -20 -20 -20 -20 -20 -20 -20 -20 -20 -20 -20 -20 -20 -20 -20 -20 -20 -20 -20 -20 -20 -20 -20 -20 -20 -20 -20 -20
1 8 10 -20 -20 -20 -11 -15 -20 -20 -20 -20 -20 -20 -20 -20 -20 -20 -20 -20 -20 -20 -20 -20 -20 -20 -20 -20 -20 -20 -20 -20 -20 -20 -20 -20 -20 -20 -20 -20 -20 -20 -20 -20
9 -8 -20 -20 -20 -20 -20 -20 -20 -20 -20 -20 -20 -20 -20 -20 -20 -20 -20 -20 -20 -20 -20 -20 -20 -20 -20 -20 -20 -20 -20 -20 -20 -20 -20 -20 -20 -20 -20 -20 -20 -20 -20 -20
-1 -20 -20 -20 -20 -20 -20 -20 -20 -20 -20 -20 -20 -20 -20 -20 -20 -20 -20 -20 -20 -20 -20 -20 -20 -20 -20 -20 -20 -20 -20 -20 -20 -20 -20 -20 -20 -20 -20 -20 -20 -20 -20 -20
-20 -20 -20 -20 -20 -20 -20 -20 -14 9 -20 -20 -20 -20 -20 -20 -20 -20 -20 -20 -20 -20 -20 -18 -19 -20 -20 -20 -20 -20 -20 -20 -20 -20 -20 -20 -20 -20 -20 -20 -20 -20 -20 -20
-20 -20 -20 -20 -20 -20 -20 -20 -12 -20 -20 -20 -20 -20 -20 -20 -20 -10 -20 -8 -20 -20 -14 6 -2 5 -5 -13 -20 -20 -20 -20 -20 -20 -20 -20 -20 -20 -20 -20 -20 -18 5 11
-20 -20 -20 -20 -20 -20 -20 -20 -20 -20 -20 -20 -20 -20 -20 -20 -18 -19 1 -11 -19 -20 -15 -18 -20 -20 -15 -20 -20 -20 -20 -20 -20 -20 -20 -20 -20 -20 -20 -20 -20 -12 19 35
-20 -20 -20 -20 -20 -20 -20 -20 -20 -20 -20 -20 -20 -19 -20 -20 -20 -20 -13 4 -20 -20 -20 -20 -20 -20 -20 -20 -20 -20 -20 -20 -20 -20 -20 -20 -20 -20 -12 10 16 26 37 32
-20 -20 -9 -20 -20 -20 -20 -20 -20 -20 -20 -17 -10 -20 -20 -20 -20 -20 -15 -20 -6 -3 -20 -20 -20 -20 -20 -20 -20 -20 -20 -20 -20 -20 -20 -18 -15 5 29 22 30 20 5 4
-20 -20 -20 -20 -20 -20 -20 2 -20 -20 -20 -18 -19 -20 -20 -12 -20 -20 -20 -20 -20 -20 -20 -19 -9 -20 -20 -20 -17 -17 -14 -18 -5 5 15 24 30 29 24 26 26 15 8 -2
-20 -20 -20 -20 -20 -20 -20 -20 -20 -20 -20 -19 -20 -20 -20 -20 -20 -4 -20 -17 -14 -14 -20 -16 0 22 24 25 23 -8 11 -5 -8 -7 -8 -0 -2 -3 -7 -5 1 6 6 -5
-13 -20 -20 -20 -20 -20 -19 -20 -20 -20 -20 -20 -20 -20 -20 -20 7 14 20 9 -7 7 -10 -17 -13 26 26 6 -18 -18 4 -20 -20 -20 -20 -20 -11 0 3 2 1 -1 -8 -20
23 13 -4 -2 -20 -20 -20 -8 -17 -10 -7 -15 -16 4 -3 5 21 -18 -20 -20 -20 -20 -20 -20 -18 22 5 -7 -4 -19 -20 -20 -20 -20 -20 -20 -20 -20 -20 -20 -20 -20 -20 -20
17 7 -19 -18 -20 -20 -20 -12 -5 3 1 -9 -7 -20 -20 -18 8 -13 -8 -11 -19 -20 -18 7 16 20 16 -20 -20 -20 -20 -20 -20 -20 -20 -20 -20 -20 -20 -20 -20 -20 -20 -20
-20 -18 -20 -20 -20 -15 -15 -3 -6 -10 -15 -20 -20 -20 -20 -20 -20 -20 -20 -20 -20 -11 12 18 -13 -13 -8 1 3 2 -2 -8 -12 -16 -20 -20 -20 -20 -20 -20 -20 -20 -20 -20

GFSNW_prec_radar_027.txt.gz
Reflectivity
-9 -20 -20 -1 14 -20 -20 -20 -20 -20 -20 -20 -20 -20 -20 -20 -20 -20 -20 -20 -20 -20 -20 -20 -20 -20 -20 -20 -20 -20 -20 -20 -20 -20 -20 -20 -20 -20 -20 -20 -20 -20 -20 -20
-5 -20 -20 12 11 -20 -20 -20 -20 -20 -20 -20 -20 -20 -20 -20 -20 -20 -20 -20 -20 -20 -20 -20 -20 -20 -20 -20 -20 -20 -20 -20 -20 -20 -20 -20 -20 -20 -20 -20 -20 -20 -20 -20
-20 -20 7 9 -18 -20 -20 -20 -20 -20 -20 -20 -20 -20 -20 -20 -20 -20 -20 -20 -20 -20 -20 -20 -20 -20 -20 -20 -20 -20 -20 -20 -20 -20 -20 -20 -20 -20 -20 -20 -20 -20 -20 -20
-20 -11 9 -19 -20 -20 -20 -20 -20 -20 -20 -20 -20 -20 -20 -20 -20 -20 -20 -20 -20 -20 -20 -20 -20 -20 -20 -20 -20 -20 -20 -20 -20 -20 -20 -20 -20 -20 -20 -20 -20 -20 -20 -20
-20 8 8 -20 -20 -20 -20 -20 -20 -20 -20 -20 -20 -20 -20 -20 -20 -20 -20 -20 -20 -20 -20 -20 -20 -20 -20 -20 -20 -20 -20 -20 -20 -20 -20 -20 -20 -20 -20 -20 -20 -20 -20 -20
-3 7 11 -20 -20 -20 -20 -20 -20 -20 -20 -20 -20 -20 -20 -20 -20 -20 -20 -20 -20 -20 -20 -20 -20 -20 -20 -20 -20 -20 -20 -20 -20 -20 -20 -20 -20 -20 -20 -20 -20 -20 -20 -20
10 6 -20 -20 -20 -20 -20 -20 -20 -20 -20 -20 -20 -20 -20 -20 -20 -20 -20 -20 -20 -20 -20 -20 -20 -20 -20 -20 -20 -20 -20 -20 -20 -20 -20 -20 -20 -20 -20 -20 -20 -20 -20 -20
-5 -20 -20 -20 -20 -20 -20 -20 -20 -20 -20 -20 -20 -20 -20 -20 -20 -20 -20 -20 -20 -20 -20 -20 -20 -20 -20 -20 -20 -20 -20 -20 -20 -20 -20 -20 -20 -20 -20 -20 -20 -20 -20 -20
-20 -20 -20 -20 -8 -20 -20 -20 -20 -20 -20 -20 -20 -20 -20 -20 -20 -20 -20 -20 -20 -20 -20 -20 -20 -20 -20 -20 -20 -20 -20 -20 -20 -20 -20 -20 -20 -20 -20 -20 -20 -20 -20 -20
-20 -20 -20 -5 -0 -20 -20 -20 -20 -20 -20 -20 -20 -20 -20 -20 -20 -20 -20 -20 -20 -20 -20 -20 -20 -20 -20 -20 -20 -20 -20 -20 -20 -20 -20 -20 -20 -20 -20 -20 -20 -20 -20 -20
-20 -20 -17 -1 -20 -20 -20 -20 -20 -20 -20 -20 -20 -20 -20 -20 -20 -20 -20 -20 -20 -20 -20 -20 -20 -20 -20 -20 -20 -20 -20 -20 -20 -20 -20 -20 -20 -20 -20 -20 -20 -20 -20 -20
9 -1 -19 -20 -20 -20 -20 -20 20 -20 -20 -20 -20 -20 -20 -20 -20 -20 -20 -20 -20 -20 -20 -20 -20 -20 -20 -20 -20 -20 -20 -20 -20 -20 -20 -20 -20 -20 -20 -20 -20 -20 -20 -20
8 5 -17 -20 -20 -20 -20 -20 4 -20 -20 -20 -20 -20 -20 -20 -20 -20 -20 -20 -20 -20 -20 -20 -20 -20 -20 -20 -20 -20 -20 -20 -20 -20 -20 -20 -20 -20 -20 -20 -20 -20 -20 -20
8 4 -9 -20 -20 -20 -8 -20 -20 -20 -20 -20 -20 -20 -20 -20 -20 -20 -20 -20 -20 -20 -20 -20 -20 -20 -20 -20 -20 -20 -20 -20 -20 -20 -20 -20 -20 -20 -20 -20 -20 -20 -20 -20
8 -19 -20 -20 -20 -7 28 24 4 -20 -20 -19 -20 -20 -20 -20 -20 -20 -20 -20 -20 -20 -20 -20 -20 -20 -20 -20 -20 -20 -20 -20 -20 -20 -20 -20 -20 -20 -20 -20 -20 -20 -20 -20
-4 -8 -20 -20 -20 -20 16 5 -20 -20 -20 -20 -20 -20 -20 -20 -20 -20 -20 -20 -20 -20 -20 -7 -20 -20 -20 -20 -20 -20 -20 -20 -20 -20 -20 -20 -20 -20 -20 -20 -20 -20 -20 -20
-16 -20 -20 -20 -20 -20 -20 -20 -16 10 -20 -20 -20 -20 -20 -20 -20 -20 -20 -20 -20 -20 -20 -20 -20 -20 -20 -20 -20 -20 -20 -20 -20 -20 -20 -20 -20 -20 -20 -20 -20 -20 -20 -20
-6 5 8 -4 -10 -20 -20 -20 -20 -20 -20 -20 -20 -20 -20 -20 -7 -13 -20 -8 -20 -20 -20 -14 -20 -20 -20 -20 -20 -20 -20 -20 -20 -20 -20 -20 -20 -20 -20 -20 -20 -20 -14 -9
-8 12 7 -10 -20 -20 -20 -20 -20 -20 -20 -20 -20 -20 -20 -20 -7 -6 -10 -20 -20 -20 -20 7 -20 -20 -20 -20 -20 -20 -20 -20 -20 -20 -20 -20 -20 -20 -20 -20 -20 8 26 32
-11 -19 -20 -20 -20 -20 -20 -20 -20 -20 -20 -20 -20 -16 -20 -20 6 -17 -20 -13 -20 -20 -20 -20 -17 -20 -20 -20 -20 -20 -20 -20 -20 -20 -20 -20 -14 -6 13 21 14 23 27 22
-20 -20 -4 2 5 -9 -20 -20 -20 -20 -20 -20 -20 -20 -20 -20 -20 -20 -20 -16 -20 -20 -20 -20 -20 -20 -20 -20 -20 -20 -20 -20 -20 -20 -5 14 4 18 22 27 23 15 5 1
-4 3 5 -6 -17 -20 -20 -20 -20 -20 -20 -20 -20 -20 -20 -20 -20 -20 -10 -15 -20 -20 -20 -4 -20 -20 2 -2 -1 -6 -17 -20 -20 -20 -18 -18 -20 -20 -20 -20 -14 -0 2 1
6 14 10 9 3 -10 -16 -20 -20 -20 0 -20 -20 -20 -20 -20 -20 -20 -20 -20 -20 -16 -20 -19 -17 14 11 28 12 -9 -12 -20 -20 -20 -20 -20 -20 -16 -17 -19 -19 -20 -20 -19
-20 -20 -20 -20 -20 -20 -20 -20 -20 -20 -20 -20 -20 -20 -20 -20 -20 4 26 -1 3 -11 -18 -20 -14 -4 -7 -1 -15 -20 -20 -20 -20 -20 -20 -20 -20 -20 -20 -20 -20 -20 -20 -20
-19 -20 -20 -20 -20 -20 0 -20 -20 -18 -20 7 -20 -17 -20 -20 -20 -20 -20 -20 -20 -20 -20 -20 -20 -14 -16 -15 -5 -10 -18 -19 -20 -20 -20 -20 -20 -20 -20 -20 -20 -20 -20 -20
29 9 -6 -20 -20 -20 -20 -0 -8 -5 6 14 14 -19 -20 -19 -20 -20 -20 -20 -20 -20 -20 -20 -13 -6 17 -4 -13 -20 -20 -20 -20 -20 -20 -20 -20 -20 -20 -20 -20 -20 -20 -20
10 -15 4 19 18 7 15 22 24 22 21 -16 -20 -20 -20 -20 -20 -20 -20 -20 -20 -20 -20 -20 -20 -16 -20 -20 -20 -20 -20 -20 -20 -20 -20 -20 -20 -20 -20 -20 -20 -20 -20 -20

GFSNW_prec_radar_030.txt.gz
Reflectivity
-1 18 28 -20 -20 -20 -20 -20 -20 -20 -20 -20 -20 -20 -20 -20 -20 -20 -20 -20 -20 -20 -20 -20 -20 -20 -20 -20 -20 -20 -20 -20 -20 -20 -20 -20 -20 -20 -20 -20 -20 -20 -20 -20
27 28 26 -18 -17 -20 -20 -20 -20 -20 -20 -20 -20 -20 -20 -20 -20 -20 -20 -20 -20 -20 -20 -20 -20 -20 -20 -20 -20 -20 -20 -20 -20 -20 -20 -20 -20 -20 -20 -20 -20 -20 -10 -20
30 30 20 -17 -12 -20 -20 -20 8 -13 -19 -20 -20 -20 -20 -20 -20 -20 -20 -20 -20 -20 -20 -20 -20 -20 -20 -20 -20 -20 -20 -20 -20 -20 -20 -20 -20 -20 -20 -20 -20 -20 -20 -20
40 36 5 -20 -20 -20 -20 -20 -17 -20 -20 -20 -20 -20 -20 -20 -20 -20 -20 -20 -20 -20 -20 -20 -20 -20 -20 -20 -20 -20 -20 -20 -20 -20 -20 -20 -20 -20 -20 -20 -20 -20 -20 -20
37 31 -19 0 -4 -20 -20 -20 -20 -20 -20 -20 -20 -20 -20 -20 -20 -20 -20 -20 -20 -20 -20 -20 -20 -20 -20 -20 -20 -20 -20 -20 -20 -20 -20 -20 -20 -20 -20 -20 -20 -20 -20 -20
27 25 -18 -7 10 -20 -20 -20 -20 -20 -20 -20 -20 -20 -20 -20 -20 -20 -20 -20 -20 -20 -20 -20 -20 -20 -20 -20 -20 -20 -20 -20 -20 -20 -20 -20 -20 -20 -20 -20 -20 -20 -20 -20
24 10 3 1 3 -20 -20 -20 -20 -20 -20 -20 -20 -20 -20 -20 -20 -20 -20 -20 -20 -20 -20 -20 -20 -20 -20 -20 -20 -20 -20 -20 -20 -20 -20 -20 -20 -20 -20 -20 -20 -20 -20 -20
18 2 -13 -3 -20 -20 -20 -20 -20 -20 23 -20 -20 -20 -20 -20 -20 -20 -20 -20 -20 -20 -20 -20 -20 -20 -20 -20 -20 -20 -20 -20 -20 -14 -20 -20 -20 -20 -20 -20 -20 -20 -20 -20
10 -1 -20 -20 -20 -20 -20 -20 -20 -20 -20 -20 -20 -20 -20 -20 -20 -20 -20 -20 -20 -20 -20 -20 -20 -20 -20 -20 -20 -20 -20 -20 -20 -20 -17 -20 -20 -20 -20 -20 -20 -20 -20 -20
-5 -20 -20 -20 -20 -20 -20 -20 -3 -20 -20 -20 -20 -20 -20 -20 -20 -20 -20 -20 -20 -20 -18 20 -20 -20 -20 -20 -20 -20 -20 -20 11 -20 2 -20 -20 -20 -20 -20 -20 -20 -20 -20
-20 -20 -20 -20 -20 -20 -17 -20 -20 -20 -20 -20 -20 -20 -20 -20 -20 -20 -20 -20 -20 -20 -10 7 -20 -4 -20 -20 -20 -20 -20 -20 -20 -19 13 -20 -20 -20 -6 -20 -20 -20 -20 -20
-20 -20 -20 -20 -20 -20 20 -20 -20 -20 -20 -20 -20 -20 -20 -20 -20 -20 -20 -20 -20 -20 -20 -12 -20 9 10 -20 -20 -20 -20 -19 -20 -20 -20 -20 -20 -20 -20 -20 -20 -20 -20 -20
-20 -16 -20 -20 -20 -16 -13 -20 -20 -20 -20 -20 -20 -20 -20 -20 -20 -20 -20 -20 -20 -20 -20 -20 -20 23 -20 -12 -20 -20 -20 -20 -20 -20 -20 -20 -20 -20 -20 -20 -20 -20 -20 -20
2 9 -20 -20 -20 -20 -20 -20 -7 17 -20 18 -20 -20 -20 -20 -20 -20 -20 -20 -20 -20 -20 -20 -12 20 -20 -20 -20 -20 -20 -20 -20 -20 -20 -20 -20 -20 -20 -20 -20 -20 -20 -20
10 -3 -20 -20 -20 -13 -20 -20 2 3 -19 -9 -20 -20 -20 -20 -20 -20 -20 -20 -20 -20 -20 19 -7 -20 -20 -20 -20 -20 -20 -20 -20 -20 -20 -20 -20 -20 -20 -20 -20 -20 -20 -20
-19 -20 -20 -20 -20 -20 -20 -11 8 -20 -20 -20 -15 16 -20 -20 -20 -20 -20 -20 -20 -20 -20 -5 -20 -20 -20 11 -20 -20 -20 -20 -20 -20 -20 -20 -20 -20 -20 -20 -20 -20 -20 -20
-20 -20 -20 -20 20 -20 -20 20 -8 -5 -20 -20 -14 -20 -20 -20 -20 -20 -20 -20 -20 -20 -20 -20 -20 -20 -20 -6 -20 -20 -20 -20 -20 -20 -20 -20 -20 -20 -20 -20 -20 -20 -20 -20
-2 10 -20 30 -20 6 26 21 -3 -20 -20 -20 -14 -9 -20 -20 -20 -20 -20 -20 -20 -20 -20 -20 -20 -12 -14 -20 -20 -20 -20 -20 -20 -20 -20 -20 -20 -20 -20 -20 -20 -20 -11 -0
-17 22 -11 20 22 3 -16 -8 -20 -20 -20 -20 17 1 15 -20 -20 -20 -20 -20 -20 -20 2 -20 -20 -20 -14 -20 -20 -20 -20 -20 -13 -20 -20 -20 -20 -20 -4 -2 0 -4 12 7
-20 -20 -20 -20 -20 -5 -4 -20 -20 -20 -20 -20 -20 -20 -20 -20 -20 -14 -20 -20 -20 -19 -1 -20 3 -20 -20 -20 -20 -20 -20 -20 -20 -20 -15 -20 -18 -17 -11 -19 -20 -20 -19 -20
-20 -18 1 -20 -20 -20 -20 -20 -20 -20 8 -20 -20 -15 -20 -20 -20 -8 -20 -2 -20 -11 -20 -3 -20 -20 -14 -4 -20 -16 -20 -18 -20 -20 -20 -20 -20 -20 -20 -20 -20 -15 -20 -20
-19 -11 -19 -20 -20 -20 1 -20 -15 -20 -19 -20 -16 -20 -2 -16 -20 -20 -20 -18 -20 -20 -18 3 -20 -2 -2 -2 -1 -2 -11 -11 -8 -20 -20 -20 -20 -20 -14 -20 -20 -20 -20 -20
-20 -20 -20 -20 -6 12 13 -15 -14 2 -12 -2 5 8 -20 -20 -20 -8 -10 8 -20 -20 -9 -16 -19 4 16 12 -1 4 -14 -19 -20 -20 -20 -20 -20 -20 -20 -20 -20 -20 -20 -20
-5 10 25 17 10 -20 -20 -18 -17 -20 -16 -20 -20 -18 -20 -20 -4 -20 -20 -11 -8 5 -9 -12 -3 -0 15 22 2 -20 -20 -20 -20 -20 -20 -20 -20 -20 -20 -20 -20 -20 -20 -20
5 -6 -18 -20 -17 -19 -13 -20 -15 -15 -11 -20 -20 -20 -20 -20 -15 -20 -7 -5 -8 -11 -0 1 -13 -1 -1 1 -20 -20 -20 -20 -20 -20 -20 -20 -20 -20 -20 -20 -20 -20 -20 -20
-3 -8 -17 -12 -11 -13 -13 2 -4 -19 -9 -20 -20 -20 -3 -16 -8 -18 -13 0 -20 -20 -0 -10 -10 -5 -4 -7 -8 -20 -14 -20 -20 -20 -20 -20 -20 -20 -20 -20 -20 -20 -20 -20
27 16 23 19 16 14 19 28 14 12 17 18 23 4 -18 -20 -20 -20 -20 1 -20 -2 -3 -20 -13 -20 -20 -2 -20 -20 -20 -20 -20 -20 -20 -20 -20 -20 -20 -20 -20 -20 -20 -20

GFSNW_prec_radar_033.txt.gz
Reflectivity
16 -20 -20 5 21 23 -20 7 -4 -20 -20 -20 -12 -20 -20 -20 -20 -20 -20 -20 -20 -20 -20 -20 -20 -20 -20 -20 -20 -20 -20 -20 -20 -20 -20 -20 -20 -20 -20 -20 -20 -20 -20 -20
15 18 -20 11 29 14 -20 14 -1 15 -20 5 -1 -20 -20 -20 -20 -20 -20 -20 -20 -20 -20 -20 -20 -20 -20 -20 -20 -20 -20 -20 -20 -20 -20 -20 -20 -20 -20 -20 -20 -20 -20 -20
-7 18 4 1 32 9 -14 -6 9 19 24 -20 -20 -20 -20 -20 -20 -20 -20 -20 -20 -20 -20 -20 -20 -20 -20 -20 -20 -20 -20 -20 -20 -20 -20 -20 -20 -20 -20 -20 -20 -20 -20 -20
-20 12 -14 22 30 -6 -20 22 -20 -20 -2 0 -20 -20 -20 -20 -20 -20 -20 -20 -20 -20 -20 -20 -20 -20 -20 -20 -20 -20 -20 -20 -20 -20 -20 -20 -20 -20 -20 -20 -20 -20 -20 -20
-15 9 27 34 31 2 12 13 -20 -20 -19 -20 -20 -20 -20 -20 -20 -20 -20 -20 -20 -20 -20 -20 -20 -20 -20 -20 -20 -20 -20 -20 -20 -20 -20 -20 -20 -20 -20 -20 -20 -20 -20 -20
-19 -11 27 34 28 -2 -19 -20 -19 -20 -19 4 -20 -20 -20 -20 -20 -20 -20 -20 -20 -20 -20 -20 -20 -20 -20 -20 -20 -20 -20 -20 -20 -20 -20 -20 -20 -20 -20 -20 -20 -20 -20 -20
-19 14 33 32 24 -15 -20 -18 15 18 20 -17 -20 -20 -20 -20 -20 -20 -20 -20 -20 -20 -20 -20 -20 -20 -20 -20 -20 -20 -20 -20 -20 -20 -20 -15 -20 -20 -20 -20 -20 -20 -20 -20
-7 32 31 30 31 -19 -9 28 12 4 12 -20 -20 -20 -20 -20 -20 -20 -20 -20 -20 -20 -20 -20 -20 -20 -20 -20 -20 -20 -20 -20 -20 -15 -20 -20 -20 -20 -20 -20 -20 -20 -20 -20
21 36 33 35 26 -18 21 27 4 21 10 -20 -20 -20 -20 -20 -20 -20 -20 -20 -20 -20 -20 -20 -20 -20 -20 -20 -20 -20 -20 -20 -20 -20 -20 -20 -20 -20 -20 -20 -20 -20 -20 -20
28 33 24 20 1 -20 24 14 -16 5 -20 -20 -20 -20 -20 -20 -20 -20 -20 -20 -20 -20 -19 5 -20 -20 -20 -20 -20 -20 -20 -20 -3 -20 -9 -20 -20 -20 -20 -20 -20 -20 -20 -20
30 21 -4 -8 -20 21 21 -0 -20 -20 -20 -20 -20 -20 -20 -20 -20 -20 -20 -20 -20 -20 -20 2 -20 -7 -20 -20 -20 -20 -20 -20 -20 -20 -2 -20 -20 -20 -20 -20 -20 -20 -20 -20
28 -9 6 -20 -19 3 26 8 -20 -20 -20 -20 -20 -20 -20 -20 -20 -20 -20 -20 -20 -20 -19 -14 -20 6 9 -20 -20 -20 -20 -20 -20 -20 -20 -20 -20 -20 -20 -20 -20 -20 -20 -20
18 -7 -20 -5 -15 17 26 16 -20 -20 -20 -20 -20 -20 -20 -20 -20 -20 -20 -20 -20 -20 -20 -20 -20 14 -20 -20 -20 -20 -20 -20 -20 -20 -20 -20 -20 -20 -20 -20 -20 -20 -20 -20
-20 -19 13 13 -16 20 22 -20 -20 -20 -20 11 -15 -20 -20 -20 -20 -20 -20 -20 -20 -20 -20 -20 -5 8 -20 -20 -20 -20 -20 -20 -20 -20 -20 -20 -20 -20 -20 -20 -20 -20 -20 -20
-20 -20 12 11 -20 -13 26 -19 -20 -20 -20 -11 1 -20 -20 -20 -20 -20 -20 -20 -20 -20 -20 11 -8 -20 -20 -20 -20 -20 -20 -20 -20 -20 -20 -20 -20 -20 -20 -20 -20 -20 -20 -20
-20 -0 -20 -20 -6 -5 -20 24 -19 9 -20 -15 3 -20 -20 -20 -20 -20 -20 -20 -20 -20 -20 -20 -20 -20 -20 8 -20 -20 -20 -20 -20 -20 -20 -20 -20 -20 -20 -20 -20 -20 -20 -20
-5 -20 -20 -20 -1 -4 -6 -19 -20 -3 -7 -20 -3 -5 -20 -20 -20 -20 -20 -20 -20 -20 -20 -20 -20 -20 -20 4 5 -20 -20 -20 -20 -20 -20 -20 -20 -20 -20 -20 -20 -20 -7 -20
-20 -20 -20 -20 19 25 7 -20 27 15 -20 -20 6 -19 17 -20 -17 -12 -20 -20 -20 -20 -20 -20 -20 -20 -20 -20 -20 -20 -20 -20 -20 -20 -20 -20 -20 -20 -20 -20 -20 -20 -20 -20
-20 -19 -20 -19 -20 -4 -20 9 23 4 -20 -20 9 6 1 -20 -16 -13 -19 -20 -20 -19 2 -16 -20 -20 -20 -20 -20 -20 -20 -20 -20 -20 -20 -20 -20 -13 -19 -20 -20 -20 -20 -20
-3 -19 -18 24 8 -20 -20 10 24 -17 -20 -20 -20 -20 -20 -15 -12 -14 -20 -20 -19 -20 -3 -11 -5 -20 -20 -20 -20 -20 -20 -20 -20 -20 -20 -5 -20 -20 -20 1 -3 -20 -20 -20
-20 -20 1 -8 21 31 23 12 10 1 -8 -20 -20 -20 -20 -20 -16 -19 -20 4 -17 -20 -15 -10 -13 -20 -16 -20 -20 -20 -20 -20 -20 -20 -20 -17 -16 -7 -10 -6 -5 -11 -20 -20
11 4 31 26 -18 -18 12 -10 -11 -20 -20 -11 -3 -11 -10 -11 -20 -20 -3 -20 -16 -20 -11 8 8 -6 -20 -15 -4 -6 -20 -20 -20 -20 -20 -14 -19 -20 -20 -20 -20 -20 -20 -20
-20 -7 -2 -19 6 14 -0 -17 -13 -19 -20 1 10 12 -4 -3 -20 -6 -7 11 5 -20 -2 -4 -19 -17 -1 0 0 -18 -18 -20 -20 -20 -20 -20 -20 -20 -20 -20 -20 -20 -20 -20
6 15 5 10 -4 -20 -6 -18 -20 -18 -6 -7 -20 -17 -18 -6 4 4 14 -3 -19 4 8 -1 -5 -11 -1 3 -6 -20 -20 -20 -20 -20 -20 -20 -20 -20 -20 -20 -20 -20 -20 -20
4 -19 -10 -14 -11 -10 -10 -4 -14 -20 -20 -8 -20 -20 -13 -18 -3 -7 -10 -2 -6 2 5 -4 -15 4 7 -8 -18 -20 -20 -20 -20 -20 -20 -20 -20 -20 -20 -20 -20 -20 -20 -20
20 7 -17 -19 -17 -5 -3 2 4 -15 -20 -20 -20 -0 2 -7 -20 -16 4 8 7 -19 -0 -8 -1 14 7 2 -20 -4 -4 -20 -20 -20 -20 -20 -20 -20 -20 -20 -20 -20 -20 -20
3 4 18 14 8 -4 6 12 1 -8 -6 6 -20 5 -1 -19 -15 2 -11 11 1 -1 1 -18 -1 -13 -9 -5 -13 -20 -20 -20 -20 -20 -20 -20 -20 -20 -20 -20 -20 -20 -20 -20

GFSNW_prec_radar_039.txt.gz
Reflectivity
2 21 7 21 17 -19 8 14 12 -19 -20 -7 -1 -18 -5 -20 -20 -20 -20 -20 -20 -20 -20 -19 -20 -20 -20 -20 -20 -20 -20 -20 -6 11 -20 -20 -20 -20 -20 -20 -20 -20 -20 -20
19 25 16 22 26 2 14 4 13 -6 -20 -20 -20 -20 -20 -20 -20 -20 -20 -20 -20 -20 -20 21 -14 -20 -20 -20 -19 -20 -20 -20 -20 -10 15 -5 -20 -20 -20 -20 -20 -20 -20 -20
29 16 26 20 21 22 17 13 23 15 5 -20 -20 -20 -20 -20 -20 -20 -20 -20 -20 -20 -20 -20 -2 -20 -20 -20 -20 -20 -20 -20 -20 -20 -20 -20 -20 -20 -20 -20 -20 -20 -20 -20
27 4 30 -3 18 11 21 8 11 -7 4 -2 -20 -20 -20 -20 -20 -20 -20 -20 -20 -20 -20 -20 -20 -20 -20 -20 -20 -20 -20 -20 -20 -20 -20 -20 -20 -20 -20 -20 -20 -20 -20 -20
15 -20 24 15 16 15 22 22 0 14 14 10 -5 -20 -20 -20 -20 -20 -20 -19 -20 -20 -20 -20 -20 -20 -20 -20 -20 -20 -20 -20 -20 -20 -20 -20 -20 -20 -20 -20 -20 -20 -20 -20
3 -20 -10 25 15 22 24 15 -16 16 -6 -1 -20 -20 -20 -20 -20 -20 -20 -20 -20 -20 -20 -20 -20 -20 -20 -20 -20 -20 -20 -20 -20 -20 -20 -20 -20 -20 -20 -20 -20 -20 -20 -20
-12 -18 -20 15 9 19 17 10 2 25 -5 -14 -20 -20 -20 -20 -20 -20 -20 -20 -20 -20 -20 -19 -4 -20 -20 -20 2 -20 -20 -20 -20 -20 -20 -20 -20 -20 -20 -20 -20 -20 -20 -20
14 7 10 22 18 -6 15 -0 13 15 -19 -4 -20 -20 -20 -20 -20 -20 -20 -20 -20 -20 -20 -7 17 -20 -20 -20 -16 -20 -20 -20 -20 -20 -20 -20 -20 -20 -20 -20 -20 -20 -20 -20
9 13 23 15 3 14 19 11 8 31 29 -20 -20 -20 -20 -20 -20 -20 -1 -20 2 -20 -6 -20 -20 -20 -20 -20 -20 -20 -20 -20 -20 -20 -20 -20 -20 -20 -20 -20 -20 -20 -20 -20
13 10 19 10 -20 -15 24 17 31 14 34 2 -20 -20 -20 -5 -12 -20 -20 0 23 -20 -18 -20 -20 -20 -20 -20 -20 -20 -20 -20 -20 -20 -20 -20 -20 -20 -20 -20 -20 -20 -20 -20
31 27 24 15 3 -20 -16 24 16 30 16 14 -20 -20 -20 -20 5 -20 -20 25 15 -20 8 -20 -20 -20 -20 -20 -20 -20 -20 -20 -20 -20 -20 -20 -20 -20 -20 -20 -20 -20 -20 -20
24 22 -17 -20 -20 -20 -20 29 21 12 15 20 5 -10 -20 8 -20 -20 -20 26 1 -16 -20 -20 -20 -20 -20 -20 -20 -20 -20 -20 -20 -20 -20 -20 -20 -20 -20 -20 -20 -20 -20 -20
-20 -20 -20 -20 -20 -14 12 20 25 23 20 6 17 24 -13 -19 -20 -20 -19 0 22 -14 -20 -20 -16 -20 -20 -20 -20 -20 -20 -20 -20 -20 -20 -20 -20 -20 -20 -20 -20 -20 -20 -20
-20 -20 -20 -20 -20 15 18 15 28 29 36 41 18 4 22 14 -7 -20 -20 5 21 4 -20 -20 -20 -20 -20 -20 -20 -20 -20 -20 -20 -20 -20 -20 -20 -20 -20 -20 -20 -20 -20 -20
-20 -20 -20 1 17 19 19 16 25 21 29 31 41 20 14 13 -5 -13 -20 28 -20 -20 -20 -20 -20 -20 -20 -20 -20 -20 -20 -20 -20 -20 -20 -20 -20 -20 -20 -20 -20 -20 -20 -20
-20 -20 5 20 29 26 28 29 27 37 25 35 42 32 -10 5 23 -13 -19 -19 -20 -20 -20 -12 -20 -20 -20 -20 -20 -20 -20 -20 -20 -20 -20 -20 -20 -20 -20 -20 -20 -20 -20 -20
-16 5 17 26 24 26 35 42 33 27 38 42 29 8 25 27 -20 -20 -20 -9 -10 4 -20 -20 -20 -20 -20 -20 -20 -20 -20 -20 -20 -20 -20 -20 -20 -20 -20 -20 -20 -20 -20 -20
-18 8 26 19 1 37 47 38 38 34 31 10 6 -14 -12 17 -0 -3 -20 -13 -20 -20 -20 -20 -20 -20 -20 -20 -20 -20 -20 -20 -20 -20 -20 -20 -20 -20 -20 -20 -20 -20 -20 -20
23 18 35 36 38 41 25 20 11 13 13 -6 -17 -13 -9 -20 -20 -20 -20 -20 8 -20 -20 -20 -20 -20 -20 -20 -20 -20 -20 -20 -20 -20 -20 -20 -20 -20 -20 -20 -20 -20 -20 -20
23 41 45 47 32 2 -19 -19 -16 -20 -20 -20 -20 -20 -20 -20 -20 -20 -20 -20 -20 -20 -20 -20 -20 -20 -20 -20 -20 -20 -20 -20 -20 -20 -20 -20 -20 -20 -20 -20 -20 -20 -20 -20
1 36 30 9 6 -20 -20 -20 -20 -20 -20 -20 -15 15 -13 -20 -12 7 -19 -13 4 -19 -3 -20 -20 -20 -20 -11 -20 -20 -20 -20 -20 -20 -20 -20 -20 -20 -20 -20 -20 -20 -20 -20
8 15 3 22 17 -13 -20 -20 -20 -20 -20 -20 -12 9 -2 -20 -6 -4 -5 13 -14 -18 -20 -20 -20 -20 -20 -20 -20 -20 -20 -20 -20 -20 -20 -20 -20 -20 -20 -20 -20 -20 -20 -20
33 19 23 -7 2 16 -20 -20 -20 -20 -20 0 1 -20 -20 -14 -20 -13 16 10 -20 -20 -20 -20 -20 -20 -20 -20 -20 -20 -20 7 -20 -20 -2 -19 -20 -20 -20 -20 -20 -20 -20 -20
7 25 6 12 11 -18 -19 -20 -20 -20 -12 4 23 8 -2 -10 0 -16 -20 -12 -20 -20 -20 -20 -20 -20 -15 -20 -20 -20 -19 -20 -20 -20 -20 -20 -19 -17 -20 -20 -20 -20 -20 -20
-20 -18 -7 -9 -3 0 -1 -2 -2 2 -11 8 14 13 9 1 -20 -20 -12 -9 -20 -20 -20 -20 -20 -18 -19 -19 -19 -17 -18 -19 -4 -18 -4 -3 -14 -20 -20 -20 -20 -20 -20 -20
-4 -11 -9 5 -2 -2 -16 -4 12 -2 -20 -20 -20 -20 -20 -20 -20 -20 -20 -20 -20 -20 -19 -7 -12 -7 -2 -8 -14 -4 -19 6 12 5 -11 -20 -20 -20 -20 -20 -20 -20 -20 -20
24 19 19 17 10 -2 11 3 -0 -10 -20 -20 -20 -20 -7 7 2 -19 -20 -20 -20 -20 7 16 -10 -2 -4 11 23 11 -1 20 10 -3 -20 -20 -20 -20 -20 -20 -20 -20 -20 -20

GFSNW_prec_radar_042.txt.gz
Reflectivity
12 0 -16 16 12 18 20 15 11 10 -20 8 -20 -19 -19 -20 11 -18 -20 -20 -20 -20 -20 -20 -20 -20 -20 -20 -20 -20 -20 -20 -20 -20 -20 -3 -20 -20 -20 -20 -20 -20 -20 -20
15 18 -20 15 20 16 -20 10 15 16 -20 6 -20 -20 4 -20 8 -16 -20 -20 -20 -20 -20 -20 -20 -20 -20 -20 -20 -20 -20 -20 -20 -20 -20 -20 -20 -20 -20 -10 -20 -20 -20 -20
10 -20 -20 1 17 21 -1 12 14 23 -7 -20 -20 -20 -20 -20 -13 -20 -20 -20 -20 -20 -20 -20 -20 -20 -20 -20 -20 1 -20 -20 -20 -20 -20 -20 -20 -20 -20 -20 -20 -20 -20 -20
-20 -20 -20 -3 12 25 3 18 8 -1 4 -20 -20 -20 -20 -20 -20 -20 -20 -20 -20 -20 -20 -20 -20 -20 -20 -20 -20 -20 -20 -20 -20 -20 -20 -20 -20 -20 -20 -20 -20 -20 -20 -20
-20 -20 -20 -2 17 30 20 14 13 7 -20 3 -20 -20 -20 -20 -20 -20 -20 -20 -20 -20 -20 -20 -20 -20 -20 -20 -20 -20 -20 -20 -20 -20 -20 -20 -20 -20 -20 -20 -20 -20 -20 -20
-2 -5 -11 -18 31 36 21 18 -20 1 -20 -19 -20 -20 -20 -20 -20 -20 -20 -20 -20 -20 -20 -20 -20 -20 -20 -20 -20 -20 -20 -20 -20 -20 -20 -20 -20 -20 -20 -20 -20 -20 -20 -20
-20 -7 26 26 29 39 17 17 -8 -2 -2 2 -20 -20 -20 -20 -20 -20 -20 -20 -20 -20 -20 -20 -20 -20 -20 -20 -20 -20 -20 -20 -20 -20 -20 -20 -20 -20 -20 -20 -20 -20 -20 -20
-20 -18 23 4 27 31 16 6 7 10 12 -6 9 -20 -20 -20 -20 -20 -20 -20 -20 -20 -20 -20 -20 -20 -20 -20 -20 -20 -20 -20 -20 -20 -20 -20 -20 -20 -20 -20 -20 -20 -20 -20
-20 -20 -3 10 11 19 5 5 15 23 10 -2 -20 -14 -20 -20 -20 -20 -20 -20 -20 -12 19 -20 -20 -20 -20 -20 -20 -20 -20 19 -20 -20 -20 -20 -20 -20 -20 -20 -20 -20 -20 -20
-20 -20 -12 -5 -20 -6 12 -17 34 26 4 -16 -4 -20 -20 -20 -20 -20 -20 2 -20 -16 -20 -20 -20 -20 -20 -20 -20 -20 -20 -20 -20 -20 -20 -20 -20 -20 -20 -20 -20 -20 -20 -20
-20 -20 -20 -20 -20 3 15 -2 20 32 12 5 -1 -20 -20 -20 -20 -20 -20 -0 -20 6 4 -11 -20 -20 -20 -20 -20 -20 -20 -20 -20 -20 -20 -20 -20 -20 -20 -20 -20 -20 -20 -20
-20 -20 -12 -19 5 6 16 -16 19 25 20 34 -4 -18 -20 -20 -20 -20 -20 -20 -20 -20 14 -20 -17 -20 -20 -20 -20 -20 -20 -20 -20 -20 -20 -20 -20 -20 -20 -20 -20 -20 -20 -20
15 16 12 3 6 3 18 14 -19 31 28 30 -5 -17 -20 -20 -20 -20 -13 -15 -16 -14 -20 13 -18 -20 -20 -20 -20 -20 -20 -20 -20 -20 -20 -20 -20 -20 -20 -20 -20 -20 -20 -20
25 27 24 24 25 33 19 11 14 -6 -5 16 26 20 18 -20 -20 -20 -20 9 -13 -17 30 11 -15 -20 -20 -20 -20 -20 -20 -20 -20 -20 -20 -20 -20 -20 -20 -20 -20 -20 -20 -20
16 21 21 24 27 17 6 18 33 28 11 20 0 -17 25 -20 -20 -18 12 -11 -20 -20 3 29 8 -20 -20 -20 -20 -20 -20 -20 -20 -20 -20 -20 -20 -20 -20 -20 -20 -20 -20 -20
16 23 19 9 18 20 13 14 9 25 35 1 2 3 -19 9 -15 0 -20 -2 -20 -20 -20 -2 19 -2 -20 -20 -20 -20 -20 -20 -20 -20 -20 -20 -20 -20 -20 -20 -20 -20 -20 -20
17 3 8 12 -18 -4 16 25 1 9 17 34 45 30 22 25 36 32 20 22 5 -20 -15 -19 -4 -15 -20 -20 -20 -20 -20 -20 -20 -20 -20 -20 -20 -20 -20 -20 -20 -20 -20 -20
-20 -20 -20 9 19 29 22 38 35 31 25 28 29 36 31 37 36 39 32 23 15 24 -3 -20 -20 -20 -20 -20 -20 -20 -20 -20 -20 -20 -20 -20 -20 -20 -20 -20 -20 -20 -20 -20
-20 -20 16 28 33 20 2 22 34 43 35 37 31 36 34 31 32 -9 -13 31 35 20 7 -20 7 -20 -20 -20 -20 -20 -20 -20 -20 -20 -20 -20 -20 -20 -20 -20 -20 -20 -20 -20
8 34 29 20 -1 38 38 35 36 27 31 12 8 21 34 14 -16 -18 -20 -20 -20 -20 5 -7 -20 -20 -20 -20 -20 -20 -20 -20 -20 -20 -20 -20 -20 -20 -20 -20 -20 -20 -20 -20
35 37 38 37 37 39 37 37 31 18 16 7 2 -19 -11 -12 -20 -20 -20 -20 -20 -20 -20 -20 -20 -20 -20 -20 -20 -20 4 6 -20 -20 -20 -20 -20 -20 -20 -20 -20 -20 -20 -20
1 29 36 36 42 34 30 10 -12 -3 2 -18 -20 -20 -20 -20 -20 -20 -20 -20 -20 -20 -20 -20 -20 -20 -18 9 10 14 -10 -20 -20 -20 -20 -20 -20 -20 -20 -20 -20 -20 -20 -20
27 38 36 31 20 6 8 -13 -20 -20 -20 -20 -16 -20 4 -20 -6 0 -20 -20 -17 -20 -20 -20 -20 -20 1 -1 -15 -1 -10 -20 -20 -20 -20 -20 -20 3 -18 -20 -20 -19 -20 -20
35 23 6 10 2 2 4 -4 -19 -10 3 -20 -20 1 5 -5 -3 -19 6 -20 -20 -20 -20 -20 -20 -18 -19 -20 -19 -20 -20 -7 5 -9 -15 14 2 -18 -18 -20 -20 -20 -20 -20
10 18 6 -13 2 12 9 15 -1 9 5 -20 -20 -20 -19 -20 9 7 -20 -20 -20 -20 -20 -20 -0 2 -4 -16 -20 -20 -20 -19 -19 -13 -6 -7 -3 5 6 -3 -20 -20 -20 -20
-20 -20 2 16 16 19 17 17 14 10 -19 -20 -20 -20 -20 -19 -9 -19 -20 -20 -20 -20 -16 -10 -16 -20 -20 -20 -18 -16 -16 -0 -16 -16 -7 4 3 4 -8 -20 -20 -20 -20 -20
-20 -12 12 -13 -15 1 11 -13 7 6 -9 -20 -20 -20 -20 -7 -1 -6 -5 -20 -20 -20 -20 -20 -17 -18 -13 -1 -7 1 16 -11 -5 6 7 -13 -14 -1 -18 -20 -20 -20 -20 -20

GFSNW_prec_radar_045.txt.gz
Reflectivity
3 -1 26 17 10 22 23 -4 2 -16 -20 19 20 -20 -20 -20 -20 -17 -20 -20 -20 -20 -20 -20 -20 -20 -20 -20 -20 -20 -20 -20 -20 -20 -20 -20 -20 -20 -20 -20 -20 -20 -20 -20
9 18 24 -3 3 19 17 9 8 -5 -20 4 -3 -19 -20 -20 -20 4 -16 -20 -20 -20 -20 -20 -20 -20 -20 -20 -20 -20 -20 -20 -20 -20 -20 -20 -20 -20 -20 -20 -20 -20 -20 -20
4 20 25 22 -16 17 22 10 13 23 24 -20 -20 -20 -20 -20 -20 -10 -20 -20 -20 -20 -20 -20 -20 -20 -20 -20 -20 -20 -20 -20 -20 -20 -20 -20 -20 -20 -20 -20 -20 -20 -20 -20
20 21 24 8 -16 23 31 8 -1 -8 18 -1 -11 -20 -20 -20 -11 -6 -20 -20 -20 -20 -20 -20 -20 -20 -20 -20 -20 -20 -20 -20 -20 -20 -20 -20 -20 -20 -20 -20 -20 -20 -20 -20
22 27 4 21 -20 11 32 12 14 1 -18 -1 2 0 -20 -20 -20 -3 -20 -20 -20 -20 -20 -20 -20 -20 -20 -20 -20 -20 -20 -20 -20 -20 -20 -20 -20 -20 -20 -20 -20 -20 -20 -20
17 17 7 -18 -12 24 32 22 -19 -1 5 -20 -3 -20 -20 -20 -17 -20 -20 -20 -16 -20 -20 -20 -20 -20 -20 -20 -20 -20 -20 -20 -20 -20 -20 -20 -20 -20 -20 -20 -20 -20 -20 -20
18 16 -16 -17 -20 13 30 20 -14 16 -7 7 -20 -20 -20 -20 -20 -20 -20 -20 -20 -20 -20 -20 -20 -20 -20 -20 -20 -20 -20 -20 -20 -20 -20 -20 -20 -20 -20 -20 -20 -20 -20 -20
9 -17 -18 -20 -20 -11 29 22 -10 26 15 -15 -3 -20 -20 -20 -20 -20 -20 -20 -20 6 -18 -20 -20 -20 -20 -20 -20 -20 -20 -20 -20 -20 -20 -20 -20 -20 -20 -20 -20 -20 -20 -20
-14 -20 -20 -20 -15 4 27 37 -18 14 22 -7 -10 2 -20 -20 -20 -20 -20 -20 -20 -20 -20 -17 -20 -20 -20 -20 -20 -20 -20 -20 -20 -20 -20 -20 -20 -20 -20 -20 -20 -20 -20 -20
-20 -20 -20 -20 -13 2 35 35 0 14 9 1 14 4 -20 -20 -20 -20 -20 -20 -20 -20 -17 12 -20 -5 -20 -20 -20 -20 -20 -20 -20 -20 -20 -20 -20 -20 -20 -20 -20 -20 -20 -20
-20 -20 6 21 18 12 25 31 7 -4 2 -9 -3 -15 -20 -20 -20 -20 -20 -20 -20 -20 -20 9 20 -20 -20 -20 -20 -20 -20 -20 -20 -20 -20 -20 -20 -20 -20 -20 -20 -20 -20 -20
-20 -2 -19 -20 -18 17 33 31 28 25 4 26 1 -20 -20 -20 -20 -20 -20 -20 -20 -20 -20 -8 20 -20 -20 -20 -20 -20 -20 -20 -20 -20 -20 -20 -20 -20 -20 -20 -20 -20 -20 -20
-0 4 -20 -18 12 11 22 25 7 26 3 -18 -19 -20 -20 -20 -20 -20 -20 -20 -20 -15 -19 18 -3 -20 -20 -20 -20 -20 -20 -20 -20 -20 -20 -20 -20 -20 -20 -20 -20 -20 -20 -20
-20 -20 -20 -20 -1 -14 -4 11 19 13 11 -16 -9 24 -20 -20 -20 -20 -20 -20 -6 2 21 23 9 -20 -20 -20 -20 -20 -20 -20 -20 -20 -20 -20 -20 -20 -20 -20 -20 -20 -20 -20
-20 -20 -20 -20 -20 1 10 11 17 28 12 14 21 14 -1 27 -20 -18 -20 -20 -10 -20 18 -9 -20 -20 -20 -20 -20 -20 -20 -20 -20 -20 -20 -20 -20 -20 -20 -20 -20 -20 -20 -20
11 -20 -20 -20 -19 -19 22 16 30 33 26 23 31 -13 -20 24 24 -12 -20 -20 -20 -19 17 -5 -20 -20 6 -7 -15 -20 -15 -20 -20 -20 -20 -20 -20 -20 -20 -20 -20 -20 -20 -20
19 7 2 13 19 6 7 10 -13 -2 37 36 38 -7 13 28 24 -10 -20 -20 19 14 8 26 -12 -20 -20 9 -7 -20 -2 -20 -20 -20 -20 -20 -20 -20 -20 -20 -20 -20 -20 -20
7 20 29 15 28 33 -8 -20 7 2 24 29 10 -13 -2 4 22 4 20 16 21 16 13 14 -20 -20 -20 -20 -20 -17 3 -20 -20 -20 -20 -20 -20 -20 -20 -20 -20 -20 -20 -20
8 14 -14 14 11 -4 -20 36 26 15 -14 13 1 0 -5 36 26 -11 20 23 16 19 -9 -8 13 -20 -20 -20 -20 -20 -6 -20 -20 -20 -20 -20 -20 -20 -20 -20 -20 -20 -20 -20
18 15 1 22 -11 -2 31 32 22 34 31 16 6 -4 10 31 35 25 9 11 32 32 33 21 -12 -20 -20 -20 -20 -20 -20 -20 -20 -20 -20 -20 -20 -20 -20 -20 -20 -20 -20 -20
13 18 40 16 37 -11 19 39 33 32 32 18 27 33 4 27 30 31 33 42 43 37 38 34 32 25 -4 -20 -20 -20 -14 -15 -20 -20 -20 10 5 -14 -10 -20 -20 -20 -20 -20
21 35 23 30 20 12 26 24 33 26 26 14 15 -6 -17 38 37 38 35 24 28 11 -20 1 10 -1 3 -4 -7 -2 -15 -20 -7 5 11 8 -20 -20 -20 -20 -20 -20 -18 -19
24 26 27 36 36 27 19 17 8 9 15 6 -2 -20 -20 -1 14 26 21 13 -9 -20 -19 -20 -20 -20 -20 -20 -20 -20 -20 -20 1 -20 -16 -20 11 -17 -20 -20 -20 -16 -20 -20
37 37 23 18 15 11 14 8 6 -0 4 -11 4 -17 -20 -20 -20 -20 -20 -20 -20 -20 -20 -20 -20 -20 -20 -20 -20 -20 -8 6 9 5 8 3 -13 -20 -17 -9 -18 -20 -14 -14
32 24 4 -4 14 17 17 18 -4 13 -2 -20 -15 -20 -20 -18 -20 -20 -20 -20 -16 -20 -20 -1 -20 -20 -20 -18 -3 4 4 9 -1 -9 -9 -16 -15 -12 -18 -20 -16 1 -2 -18
-19 -16 -11 -16 -20 -20 -16 -5 7 13 -2 -20 -20 -20 -20 16 4 -20 -10 -20 -20 -20 1 -9 -19 -18 -20 -20 -20 -16 -15 -17 -16 -14 -15 -5 -1 -20 -10 -1 -1 -20 -20 -20
-20 10 16 -15 -10 2 4 4 6 -10 -20 -20 -20 -20 -17 -14 -20 -15 -2 -4 -11 -16 -20 -20 -20 -20 -20 -10 18 21 12 -0 -15 -14 -10 -14 -6 -0 5 -17 -20 -20 -20 -20

GFSNW_prec_radar_048.txt.gz
Reflectivity
13 -20 -20 21 19 22 23 23 -4 -20 -20 4 8 -3 -20 -20 -20 -20 -20 -20 -20 -20 -20 -20 -20 -20 -20 -20 -20 -20 -20 -20 -20 -20 -20 -20 -20 -20 -20 -20 -20 -20 -20 -20
20 -18 -18 -18 36 14 7 21 2 5 -20 -4 -16 -2 -16 -20 -18 -20 -20 -20 -20 -20 -20 -20 -20 -20 -20 -20 -20 -20 -20 -20 -20 -20 -20 -20 -20 -20 -20 -20 -20 -20 -20 -20
23 -15 -5 6 29 21 6 26 10 29 19 -20 -20 -4 -8 -20 -20 -20 -20 -20 -20 -20 -20 -20 -20 -20 -20 -20 -20 -20 -20 -20 -20 -20 -20 -20 -20 -20 -20 -20 -20 -20 -20 -20
25 -14 5 4 -2 22 24 29 4 -0 3 -18 -20 -20 -20 -20 -20 -20 -20 -20 -20 -20 -20 -20 -20 -20 -20 -20 -20 -20 -20 -20 -20 -20 -20 -20 -20 -20 -20 -20 -20 -20 -20 -20
25 1 6 4 -20 27 27 28 -4 4 -13 -20 -20 -5 -20 -20 -20 -20 -20 -20 -20 -20 -20 -20 -20 -20 -20 -20 -20 -20 -20 -20 -20 -20 -20 -20 -20 -20 -20 -20 -20 -20 -20 -20
30 20 -0 12 -9 28 28 29 -19 -1 5 -19 -8 -20 -20 -20 -20 -20 -20 -20 -20 -20 -20 -17 -20 -20 -20 -20 -20 -20 -20 -20 -20 -20 -20 -20 -20 -20 -20 -20 -20 -20 -20 -20
28 27 6 13 -18 7 -3 24 -20 15 8 6 -20 -20 -20 -20 -20 -20 -20 -15 -20 -20 11 8 -20 -20 -20 -20 -20 -20 -20 -20 -20 -20 -20 -20 -20 -20 -20 -20 -20 -20 -20 -20
30 12 9 4 -16 -6 -11 -5 -18 -16 10 11 -5 -8 -20 -20 -20 -20 -20 -17 -5 13 9 26 -20 -20 -20 -20 -20 -20 -20 -20 -20 -20 -20 -20 -20 -20 -20 -20 -20 -20 -20 -20
27 9 15 6 14 -14 -20 11 15 -4 33 -15 -6 3 -20 -20 -20 -20 -20 -20 3 13 4 12 -20 15 -20 -20 -20 -20 -20 -20 -20 -20 -20 -20 -20 -20 -20 -20 -20 -20 -20 -20
17 16 16 26 2 15 -20 -10 22 14 22 20 6 8 -8 -20 -20 -20 -20 -20 -18 -6 -10 -19 -18 -20 11 -20 -20 -20 -20 -20 -20 -20 -20 -20 -20 -20 -20 -20 -20 -20 -20 -20
19 9 23 19 2 -1 -20 -20 22 23 14 27 16 -20 -14 -20 -20 -20 -20 -20 -20 -20 -20 -20 -16 17 -3 11 -20 -20 -20 -20 -20 -20 -20 -20 -20 -20 -20 -20 -20 -20 -20 -20
21 20 15 14 17 -3 -20 8 -1 11 25 27 18 16 13 -20 -20 -20 -20 -20 -20 -20 -20 -20 -20 8 -20 -20 -20 -20 -20 -20 -20 -20 -20 -20 -20 -20 -20 -20 -20 -20 -20 -20
17 5 -18 -12 14 -2 -19 2 26 35 31 -19 -2 4 -13 13 -20 -20 -20 -20 -20 -20 -20 -20 -20 -20 -19 -20 -20 -20 -20 -20 -20 -20 -20 -20 -20 -20 -20 -20 -20 -20 -20 -20
-19 -20 -16 -20 -20 -11 2 -3 14 35 23 2 -19 -20 1 -20 -20 -20 -20 -20 -20 -7 -4 -20 -20 -5 -17 -13 -20 -20 -20 -20 -20 -20 -20 -20 -20 -20 -20 -20 -20 -20 -20 -20
-13 -20 18 38 33 22 -11 12 41 35 -5 -17 5 -20 -20 -20 -20 -20 -20 -20 -20 -9 13 10 -20 -20 7 2 -7 -14 -20 -20 -20 -20 -20 -20 -20 -20 -20 -20 -20 -20 -20 -20
6 15 21 19 17 22 19 28 27 12 27 5 -14 -20 15 -20 -18 -20 -20 13 -20 -20 -20 -20 -19 -20 -13 -19 -20 -20 -20 -20 -20 -20 -20 -20 -20 -20 -20 -20 -20 -20 -20 -20
5 -20 -8 -20 -20 -20 5 14 2 -4 -20 22 0 -20 -20 -18 -6 23 13 20 -20 16 -12 -20 -2 -20 9 35 -12 -20 -7 -20 -14 -10 -20 -20 -20 -20 -20 -20 -20 -20 -20 -20
8 1 -20 -20 -15 -20 -20 -20 -20 -15 22 30 29 -5 -20 -6 13 -10 -20 -10 -20 -20 -20 -20 -20 -20 -4 -1 -20 -20 -20 -20 -18 -4 -20 -20 -20 -20 -20 -20 -20 -20 -20 -20
21 16 18 20 10 -6 -20 12 -1 -20 -10 10 21 2 -16 -12 13 44 23 20 -6 -20 -20 -20 -8 -20 -20 -20 -20 -20 5 -16 -20 -17 7 -16 -20 -20 -20 -20 -20 -20 -20 -20
-14 17 24 29 -2 -20 9 2 4 -4 3 7 28 -8 -20 -20 -3 1 24 19 15 -14 -20 -19 -20 -20 -20 -20 -19 -0 -10 -20 -20 -19 -14 -16 -20 -20 -20 -20 -20 -20 -20 -20
10 -16 -20 -18 22 25 40 36 39 30 11 -1 -12 4 2 -20 -5 -13 28 29 12 -20 -11 -8 12 17 -11 -20 6 5 -12 -20 -18 -20 -20 -20 -20 -20 -20 -13 -11 -18 -20 -18
12 16 2 6 20 21 29 13 5 3 0 13 9 -6 -12 -14 20 29 39 28 23 -5 -4 -14 17 5 20 19 9 31 23 9 13 -7 -12 -17 -20 -20 -18 -20 -13 -18 -17 -6
17 33 29 27 9 17 11 7 14 8 12 6 14 22 26 28 39 38 32 28 26 22 29 25 5 18 35 34 26 21 18 11 -8 -19 -19 -20 -20 -20 -10 -12 5 -20 -18 5
25 16 -17 0 -20 -2 14 2 22 28 37 30 36 26 -4 -8 15 18 19 25 27 21 20 21 23 20 10 8 10 4 -6 5 -20 -20 -18 -18 11 8 4 -2 -11 -7 5 -10
23 32 18 21 22 22 21 19 8 10 6 6 -11 24 22 -11 -12 -12 -1 13 10 -2 -6 3 2 13 14 15 17 12 17 20 16 7 2 -0 -2 -12 -13 -4 -4 -20 -20 -3
18 5 14 3 -7 -6 -2 8 13 20 11 5 2 -16 -17 -2 6 -19 -5 -10 -3 -1 11 17 20 18 22 23 24 20 14 -9 -17 -16 -17 -8 4 8 -4 -18 -20 -18 -11 -10
-20 11 11 8 -1 7 12 10 14 19 9 -18 -7 -20 -8 6 3 8 -5 -11 8 -0 3 9 14 12 8 -7 -14 -9 -11 2 12 15 16 10 -0 -6 -12 -18 -20 -18 -4 -8